M I D A S
Marine Information and Data Acquisition System
Tripno 747 of the Zeeleeuw from 2004-07-13 06:12:42 to 2004-07-13 17:27:28
Back to CruiseResearch ActivitiesStationsMapUnderway DataData graphs

EquipmentUnitsComment
TimeDGPSUTC
LatitudeDGPSDM.mWGS84
LongitudeDGPSDM.mWGS84
TemperatureSBE03/SBE38deg celciusITS90
ConductivitySBE21S/mITS90
SalinitySBE21 Practical Salinity Units
ChlorophylAChelsea fluorimeterg/lCalibrated in Aceton
Missing or incorrect values are displayed as -999
Sea surface data collected by the RV Zeeleeuw from 2004-07-13 06:12:42 to 2004-07-13 17:27:28
                                                                                    Next 1000 lines
Time Latitude Longitude Temperature Conductivity Salinity ChlorophylA
2004-07-13 06:12:53 51°13.597 2°56.096 20.197304 0.03147 0.17463 -0.005933
2004-07-13 06:12:57 51°13.597 2°56.096 20.193874 0.03147 0.17463 -0.005933
2004-07-13 06:13:02 51°13.597 2°56.096 20.193874 0.03147 0.17463 -0.005933
2004-07-13 06:13:08 51°13.597 2°56.096 20.196901 0.03147 0.174632 0.027777
2004-07-13 06:13:13 51°13.597 2°56.096 20.197909 0.03147 0.174632 -0.005933
2004-07-13 06:13:17 51°13.597 2°56.096 20.198151 0.03147 0.174632 0.027777
2004-07-13 06:13:22 51°13.597 2°56.096 20.197385 0.03147 0.174632 -0.005933
2004-07-13 06:13:28 51°13.597 2°56.096 20.200936 0.03147 0.174632 -0.005933
2004-07-13 06:13:32 51°13.597 2°56.096 20.200936 0.03147 0.174632 -0.005933
2004-07-13 06:13:37 51°13.597 2°56.096 20.202307 0.03147 0.174635 -0.005933
2004-07-13 06:13:42 51°13.597 2°56.096 20.201339 0.03147 0.174632 -0.005933
2004-07-13 06:13:48 51°13.597 2°56.096 20.206947 0.03147 0.174632 -0.005933
2004-07-13 06:13:53 51°13.597 2°56.096 20.201541 0.03147 0.17463 -0.039642
2004-07-13 06:13:57 51°13.597 2°56.096 20.196901 0.03147 0.174632 0.027777
2004-07-13 06:14:01 51°13.597 2°56.096 20.196901 0.03147 0.174632 0.027777
2004-07-13 06:14:07 51°13.597 2°56.096 20.193511 0.03147 0.174632 -0.039642
2004-07-13 06:14:13 51°13.597 2°56.096 20.201541 0.03147 0.174632 -0.005933
2004-07-13 06:14:17 51°13.597 2°56.096 20.197062 0.03147 0.174632 -0.005933
2004-07-13 06:14:22 51°13.597 2°56.096 20.197223 0.03147 0.174635 -0.005933
2004-07-13 06:14:28 51°13.597 2°56.096 20.202025 0.03147 0.174635 -0.005933
2004-07-13 06:14:32 51°13.597 2°56.096 20.202025 0.03147 0.174635 -0.005933
2004-07-13 06:14:37 51°13.597 2°56.096 20.198676 0.03147 0.174635 -0.005933
2004-07-13 06:14:42 51°13.597 2°56.096 20.199644 0.03147 0.174638 -0.005933
2004-07-13 06:14:48 51°13.597 2°56.096 20.20255 0.03147 0.174635 -0.005933
2004-07-13 06:14:53 51°13.597 2°56.096 20.202469 0.03147 0.174635 -0.005933
2004-07-13 06:14:57 51°13.597 2°56.096 20.201864 0.03147 0.174635 -0.005933
2004-07-13 06:15:02 51°13.597 2°56.096 20.201864 0.03147 0.174635 -0.005933
2004-07-13 06:15:08 51°13.597 2°56.096 20.203155 0.03147 0.174635 -0.039642
2004-07-13 06:15:12 51°13.597 2°56.096 20.204607 0.03147 0.174635 -0.039642
2004-07-13 06:15:17 51°13.597 2°56.096 20.205979 0.03147 0.174635 -0.005933
2004-07-13 06:15:22 51°13.597 2°56.096 20.206342 0.03147 0.174635 -0.005933
2004-07-13 06:15:28 51°13.597 2°56.096 20.204607 0.03147 0.174635 0.027777
2004-07-13 06:15:32 51°13.597 2°56.096 20.204607 0.03147 0.174635 0.027777
2004-07-13 06:15:37 51°13.597 2°56.096 20.207795 0.03147 0.174641 -0.039642
2004-07-13 06:15:42 51°13.597 2°56.096 20.209086 0.03147 0.174635 -0.005933
2004-07-13 06:15:47 51°13.597 2°56.096 20.206705 0.03147 0.174635 -0.005933
2004-07-13 06:15:52 51°13.597 2°56.096 20.210135 0.03147 0.174641 -0.005933
2004-07-13 06:15:57 51°13.597 2°56.096 20.208763 0.03147 0.174638 -0.039642
2004-07-13 06:16:02 51°13.597 2°56.096 20.208763 0.03147 0.174638 -0.039642
2004-07-13 06:16:07 51°13.597 2°56.096 20.202469 0.03147 0.174638 -0.005933
2004-07-13 06:16:12 51°13.597 2°56.096 20.200936 0.03147 0.174638 -0.039642
2004-07-13 06:16:16 51°13.597 2°56.096 20.203921 0.03147 0.174638 -0.005933
2004-07-13 06:16:22 51°13.597 2°56.096 20.203074 0.03147 0.174641 -0.005933
2004-07-13 06:16:28 51°13.597 2°56.096 20.200411 0.031366 0.174058 -0.039642
2004-07-13 06:16:32 51°13.597 2°56.096 20.200411 0.031366 0.174058 -0.039642
2004-07-13 06:16:37 51°13.597 2°56.096 20.20489 0.03147 0.174641 -0.005933
2004-07-13 06:16:42 51°13.597 2°56.096 20.200492 0.03147 0.174638 -0.039642
2004-07-13 06:16:48 51°13.597 2°56.096 20.199443 0.03147 0.174641 -0.005933
2004-07-13 06:16:52 51°13.597 2°56.096 20.205979 0.03147 0.174641 -0.039642
2004-07-13 06:16:57 51°13.597 2°56.096 20.207028 0.03147 0.174638 -0.039642
2004-07-13 06:17:02 51°13.597 2°56.096 20.207028 0.03147 0.174638 -0.039642
2004-07-13 06:17:06 51°13.597 2°56.096 20.205334 0.03147 0.174641 -0.039642
2004-07-13 06:17:12 51°13.597 2°56.096 20.204123 0.031366 0.174058 -0.005933
2004-07-13 06:17:18 51°13.597 2°56.096 20.203921 0.03147 0.174641 -0.039642
2004-07-13 06:17:22 51°13.597 2°56.096 20.205898 0.03147 0.174644 -0.039642
2004-07-13 06:17:26 51°13.597 2°56.096 20.207714 0.03147 0.174644 -0.039642
2004-07-13 06:17:32 51°13.597 2°56.096 20.207714 0.03147 0.174644 -0.039642
2004-07-13 06:17:36 51°13.597 2°56.097 20.206262 0.03147 0.174644 -0.005933
2004-07-13 06:17:42 51°13.597 2°56.097 20.206786 0.03147 0.174644 -0.039642
2004-07-13 06:17:48 51°13.597 2°56.097 20.205737 0.03147 0.174644 -0.005933
2004-07-13 06:17:53 51°13.597 2°56.097 20.21433 0.03147 0.174644 -0.039642
2004-07-13 06:17:58 51°13.597 2°56.096 20.206181 0.03147 0.174644 -0.005933
2004-07-13 06:18:02 51°13.597 2°56.096 20.206181 0.03147 0.174644 -0.005933
2004-07-13 06:18:08 51°13.597 2°56.096 20.210296 0.031366 0.174061 0.027777
2004-07-13 06:18:12 51°13.597 2°56.096 20.202106 0.03147 0.174644 -0.005933
2004-07-13 06:18:17 51°13.596 2°56.096 20.209287 0.03147 0.174644 -0.005933
2004-07-13 06:18:22 51°13.596 2°56.096 20.191211 0.031366 0.174061 -0.039642
2004-07-13 06:18:28 51°13.597 2°56.094 20.161301 0.031366 0.174061 -0.005933
2004-07-13 06:18:33 51°13.597 2°56.092 20.161301 0.031366 0.174061 -0.005933
2004-07-13 06:18:37 51°13.598 2°56.09 20.154518 0.03147 0.174638 -0.005933
2004-07-13 06:18:42 51°13.599 2°56.086 20.215097 0.031366 0.174064 -0.039642
2004-07-13 06:18:46 51°13.599 2°56.083 20.191372 0.03147 0.174646 -0.039642
2004-07-13 06:18:52 51°13.601 2°56.077 20.199039 0.031366 0.174064 -0.005933
2004-07-13 06:18:58 51°13.603 2°56.07 20.201339 0.031366 0.174064 -0.039642
2004-07-13 06:19:03 51°13.605 2°56.064 20.201339 0.031366 0.174064 -0.039642
2004-07-13 06:19:08 51°13.607 2°56.058 20.20376 0.031366 0.174064 -0.005933
2004-07-13 06:19:13 51°13.609 2°56.051 20.196376 0.03147 0.174644 -0.039642
2004-07-13 06:19:18 51°13.611 2°56.044 20.220623 0.031366 0.174064 -0.005933
2004-07-13 06:19:23 51°13.614 2°56.036 20.210296 0.03147 0.174649 -0.039642
2004-07-13 06:19:28 51°13.616 2°56.028 20.211587 0.031366 0.174067 -0.005933
2004-07-13 06:19:33 51°13.619 2°56.02 20.211587 0.031366 0.174067 -0.005933
2004-07-13 06:19:38 51°13.621 2°56.012 20.211829 0.03147 0.174649 -0.039642
2004-07-13 06:19:42 51°13.623 2°56.005 20.242483 0.03147 0.174649 -0.039642
2004-07-13 06:19:48 51°13.626 2°55.995 20.260063 0.031366 0.174069 -0.005933
2004-07-13 06:19:53 51°13.629 2°55.986 20.268932 0.031366 0.174069 -0.005933
2004-07-13 06:19:58 51°13.632 2°55.977 20.237563 0.031366 0.174069 -0.005933
2004-07-13 06:20:02 51°13.634 2°55.97 20.237563 0.031366 0.174069 -0.005933
2004-07-13 06:20:08 51°13.637 2°55.959 20.241112 0.031366 0.174069 -0.039642
2004-07-13 06:20:13 51°13.639 2°55.95 20.235829 0.031366 0.174069 -0.005933
2004-07-13 06:20:18 51°13.642 2°55.941 20.233611 0.031366 0.174069 -0.005933
2004-07-13 06:20:23 51°13.644 2°55.932 20.229941 0.031366 0.174069 -0.005933
2004-07-13 06:20:28 51°13.646 2°55.923 20.23353 0.031366 0.174069 -0.005933
2004-07-13 06:20:33 51°13.649 2°55.913 20.23353 0.031366 0.174069 -0.005933
2004-07-13 06:20:37 51°13.65 2°55.906 20.230344 0.031366 0.174069 -0.005933
2004-07-13 06:20:42 51°13.652 2°55.896 20.229255 0.031366 0.174072 -0.039642
2004-07-13 06:20:48 51°13.654 2°55.884 20.228973 0.031366 0.174069 -0.039642
2004-07-13 06:20:53 51°13.656 2°55.874 20.228691 0.03147 0.174652 -0.005933
2004-07-13 06:20:58 51°13.657 2°55.864 20.230506 0.031366 0.174069 -0.039642
2004-07-13 06:21:03 51°13.658 2°55.854 20.230506 0.031366 0.174069 -0.039642
2004-07-13 06:21:08 51°13.659 2°55.844 20.227602 0.031366 0.174069 -0.005933
2004-07-13 06:21:13 51°13.659 2°55.834 20.226069 0.031366 0.174069 -0.039642
2004-07-13 06:21:18 51°13.66 2°55.824 20.220381 0.031366 0.174069 -0.039642
2004-07-13 06:21:24 51°13.66 2°55.812 20.227279 0.031366 0.174069 -0.039642
2004-07-13 06:21:28 51°13.66 2°55.803 20.22502 0.031366 0.174072 -0.039642
2004-07-13 06:21:33 51°13.659 2°55.794 20.22502 0.031366 0.174072 -0.039642
2004-07-13 06:21:38 51°13.659 2°55.785 20.248451 0.031366 0.174072 -0.005933
2004-07-13 06:21:43 51°13.659 2°55.779 20.246758 0.031366 0.174072 -0.005933
2004-07-13 06:21:48 51°13.658 2°55.775 20.340528 0.031366 0.174072 -0.039642
2004-07-13 06:21:53 51°13.658 2°55.773 20.329171 0.031366 0.174072 -0.039642
2004-07-13 06:21:58 51°13.659 2°55.773 20.382074 0.031366 0.174075 -0.005933
2004-07-13 06:22:02 51°13.66 2°55.774 20.382074 0.031366 0.174075 -0.005933
2004-07-13 06:22:08 51°13.663 2°55.779 20.418688 0.031366 0.174075 -0.073352
2004-07-13 06:22:13 51°13.667 2°55.782 20.401671 0.031366 0.174075 -0.039642
2004-07-13 06:22:18 51°13.672 2°55.786 20.402475 0.031366 0.174078 -0.005933
2004-07-13 06:22:22 51°13.677 2°55.788 20.401952 0.031366 0.174072 -0.039642
2004-07-13 06:22:28 51°13.685 2°55.789 20.387064 0.031366 0.174072 -0.039642
2004-07-13 06:22:33 51°13.693 2°55.788 20.387064 0.031366 0.174072 -0.039642
2004-07-13 06:22:36 51°13.698 2°55.786 20.381711 0.031366 0.174072 -0.039642
2004-07-13 06:22:42 51°13.707 2°55.78 20.383845 0.031366 0.174069 -0.039642
2004-07-13 06:22:48 51°13.717 2°55.77 20.36388 0.031366 0.174067 -0.005933
2004-07-13 06:22:53 51°13.725 2°55.762 20.244983 0.031366 0.174061 -0.039642
2004-07-13 06:22:57 51°13.732 2°55.754 20.216993 0.031366 0.174056 -0.005933
2004-07-13 06:23:02 51°13.74 2°55.745 20.216993 0.031366 0.174056 -0.005933
2004-07-13 06:23:08 51°13.749 2°55.733 20.162351 0.031366 0.174056 -0.039642
2004-07-13 06:23:13 51°13.755 2°55.723 20.200774 0.031366 0.174056 -0.005933
2004-07-13 06:23:17 51°13.761 2°55.715 20.197143 0.031366 0.174058 -0.039642
2004-07-13 06:23:22 51°13.768 2°55.704 20.170546 0.031366 0.174058 -0.005933
2004-07-13 06:23:28 51°13.777 2°55.692 20.185601 0.031366 0.174061 -0.039642
2004-07-13 06:23:33 51°13.785 2°55.682 20.185601 0.031366 0.174061 -0.039642
2004-07-13 06:23:37 51°13.791 2°55.674 20.184592 0.031366 0.174056 -0.005933
2004-07-13 06:23:42 51°13.799 2°55.663 20.198676 0.031366 0.174056 -0.039642
2004-07-13 06:23:48 51°13.808 2°55.651 20.181969 0.031366 0.174056 -0.005933
2004-07-13 06:23:53 51°13.816 2°55.642 20.17991 0.031366 0.174058 -0.073352
2004-07-13 06:23:56 51°13.821 2°55.636 20.199886 0.031366 0.174061 -0.005933
2004-07-13 06:24:02 51°13.832 2°55.626 20.199886 0.031366 0.174061 -0.005933
2004-07-13 06:24:08 51°13.843 2°55.617 20.179668 0.031366 0.174058 -0.039642
2004-07-13 06:24:13 51°13.852 2°55.609 20.198757 0.031366 0.174061 -0.039642
2004-07-13 06:24:17 51°13.86 2°55.604 20.219091 0.031366 0.174064 -0.039642
2004-07-13 06:24:22 51°13.869 2°55.596 20.226553 0.031366 0.174061 -0.073352
2004-07-13 06:24:27 51°13.878 2°55.589 20.216146 0.031366 0.174064 -0.039642
2004-07-13 06:24:31 51°13.886 2°55.583 20.216146 0.031366 0.174064 -0.039642
2004-07-13 06:24:36 51°13.896 2°55.577 20.227763 0.031366 0.174064 -0.039642
2004-07-13 06:24:41 51°13.905 2°55.57 20.248814 0.031366 0.174067 -0.039642
2004-07-13 06:24:48 51°13.919 2°55.56 20.225423 0.031366 0.174067 -0.039642
2004-07-13 06:24:52 51°13.926 2°55.555 20.219938 0.031366 0.174067 -0.005933
2004-07-13 06:24:57 51°13.936 2°55.548 20.232038 0.031366 0.174067 -0.039642
2004-07-13 06:25:02 51°13.946 2°55.542 20.232038 0.031366 0.174067 -0.039642
2004-07-13 06:25:08 51°13.957 2°55.534 20.22139 0.031366 0.174067 -0.039642
2004-07-13 06:25:12 51°13.965 2°55.529 20.22861 0.031366 0.174067 -0.073352
2004-07-13 06:25:18 51°13.977 2°55.521 20.234821 0.031366 0.174067 -0.005933
2004-07-13 06:25:22 51°13.985 2°55.516 20.202227 0.031366 0.174064 -0.039642
2004-07-13 06:25:28 51°13.998 2°55.509 20.213241 0.031366 0.174064 -0.073352
2004-07-13 06:25:33 51°14.008 2°55.503 20.213241 0.031366 0.174064 -0.073352
2004-07-13 06:25:37 51°14.016 2°55.499 20.225706 0.031366 0.174064 -0.039642
2004-07-13 06:25:42 51°14.027 2°55.493 20.239177 0.031366 0.174069 -0.073352
2004-07-13 06:25:48 51°14.04 2°55.486 20.249096 0.031366 0.174072 -0.005933
2004-07-13 06:25:53 51°14.05 2°55.481 20.26216 0.031366 0.174072 -0.039642
2004-07-13 06:25:57 51°14.059 2°55.476 20.277316 0.031366 0.174072 -0.039642
2004-07-13 06:26:02 51°14.069 2°55.47 20.277316 0.031366 0.174072 -0.039642
2004-07-13 06:26:07 51°14.08 2°55.464 20.234539 0.031366 0.174072 -0.073352
2004-07-13 06:26:12 51°14.09 2°55.458 20.241757 0.031366 0.174072 -0.039642
2004-07-13 06:26:16 51°14.099 2°55.453 20.247645 0.031366 0.174072 -0.039642
2004-07-13 06:26:22 51°14.112 2°55.445 20.249943 0.031366 0.174069 -0.039642
2004-07-13 06:26:28 51°14.126 2°55.436 20.297104 0.031366 0.174072 -0.039642
2004-07-13 06:26:32 51°14.135 2°55.43 20.297104 0.031366 0.174072 -0.039642
2004-07-13 06:26:37 51°14.146 2°55.421 20.258612 0.031366 0.174072 -0.039642
2004-07-13 06:26:42 51°14.158 2°55.412 20.247282 0.031366 0.174069 -0.039642
2004-07-13 06:26:48 51°14.172 2°55.401 20.268932 0.031366 0.174072 -0.039642
2004-07-13 06:26:52 51°14.181 2°55.392 20.330782 0.031366 0.174075 -0.039642
2004-07-13 06:26:58 51°14.194 2°55.377 20.279976 0.031366 0.174072 -0.039642
2004-07-13 06:27:02 51°14.202 2°55.366 20.279976 0.031366 0.174072 -0.039642
2004-07-13 06:27:08 51°14.215 2°55.35 20.270101 0.031366 0.174075 -0.039642
2004-07-13 06:27:13 51°14.225 2°55.335 20.257322 0.031366 0.174072 -0.039642
2004-07-13 06:27:17 51°14.233 2°55.322 20.248653 0.031366 0.174072 -0.039642
2004-07-13 06:27:22 51°14.243 2°55.306 20.246314 0.031366 0.174072 -0.039642
2004-07-13 06:27:27 51°14.253 2°55.29 20.264175 0.031366 0.174075 -0.039642
2004-07-13 06:27:32 51°14.262 2°55.272 20.264175 0.031366 0.174075 -0.039642
2004-07-13 06:27:36 51°14.27 2°55.257 20.270625 0.031366 0.174072 -0.073352
2004-07-13 06:27:42 51°14.281 2°55.235 20.215863 0.031366 0.174072 -0.039642
2004-07-13 06:27:46 51°14.289 2°55.22 20.200129 0.031366 0.174069 -0.039642
2004-07-13 06:27:52 51°14.301 2°55.197 20.231796 0.031366 0.174067 -0.039642
2004-07-13 06:27:57 51°14.31 2°55.176 20.256394 0.031366 0.174072 -0.073352
2004-07-13 06:28:02 51°14.319 2°55.156 20.256394 0.031366 0.174072 -0.073352
2004-07-13 06:28:08 51°14.329 2°55.131 20.2372 0.031366 0.174072 -0.073352
2004-07-13 06:28:13 51°14.338 2°55.11 20.191816 0.031366 0.174072 -0.039642
2004-07-13 06:28:17 51°14.346 2°55.093 20.182251 0.031366 0.174067 -0.039642
2004-07-13 06:28:22 51°14.355 2°55.072 20.173614 0.031366 0.174072 -0.073352
2004-07-13 06:28:28 51°14.367 2°55.046 20.214532 0.031366 0.174067 -0.073352
2004-07-13 06:28:32 51°14.375 2°55.029 20.214532 0.031366 0.174067 -0.073352
2004-07-13 06:28:36 51°14.383 2°55.012 20.164935 0.031366 0.174067 -0.107061
2004-07-13 06:28:42 51°14.396 2°54.986 20.20961 0.031366 0.174069 -0.039642
2004-07-13 06:28:48 51°14.41 2°54.961 20.205132 0.031366 0.174072 -0.039642
2004-07-13 06:28:53 51°14.422 2°54.94 20.178457 0.031366 0.174067 -0.073352
2004-07-13 06:28:57 51°14.432 2°54.923 20.170183 0.031366 0.174069 -0.039642
2004-07-13 06:29:02 51°14.445 2°54.904 20.170183 0.031366 0.174069 -0.039642
2004-07-13 06:29:08 51°14.461 2°54.882 20.229215 0.031366 0.174069 -0.039642
2004-07-13 06:29:12 51°14.472 2°54.867 20.204123 0.031366 0.174072 -0.005933
2004-07-13 06:29:18 51°14.489 2°54.846 20.200411 0.031366 0.174075 -0.073352
2004-07-13 06:29:22 51°14.5 2°54.831 20.194116 0.031366 0.174075 -0.039642
2004-07-13 06:29:28 51°14.517 2°54.81 20.241596 0.031366 0.174078 -0.039642
2004-07-13 06:29:33 51°14.532 2°54.793 20.241596 0.031366 0.174078 -0.039642
2004-07-13 06:29:37 51°14.544 2°54.78 20.207028 0.031366 0.174081 -0.073352
2004-07-13 06:29:42 51°14.559 2°54.763 20.245064 0.031366 0.174078 -0.039642
2004-07-13 06:29:48 51°14.576 2°54.743 20.188547 0.031366 0.174081 -0.039642
2004-07-13 06:29:52 51°14.588 2°54.73 20.202307 0.031366 0.174081 -0.039642
2004-07-13 06:29:58 51°14.606 2°54.71 20.221228 0.031366 0.174081 -0.073352
2004-07-13 06:30:02 51°14.618 2°54.695 20.221228 0.031366 0.174081 -0.073352
2004-07-13 06:30:08 51°14.635 2°54.675 20.263006 0.031366 0.174081 -0.039642
2004-07-13 06:30:13 51°14.649 2°54.658 20.216388 0.031366 0.174083 -0.073352
2004-07-13 06:30:17 51°14.661 2°54.644 20.184229 0.031366 0.174078 -0.039642
2004-07-13 06:30:20 51°14.67 2°54.633 20.246838 0.031366 0.174083 -0.107061
2004-07-13 06:30:27 51°14.691 2°54.61 20.240548 0.031366 0.174089 -0.039642
2004-07-13 06:30:32 51°14.705 2°54.592 20.240548 0.031366 0.174089 -0.039642
2004-07-13 06:30:36 51°14.717 2°54.578 20.234135 0.031366 0.174086 -0.073352
2004-07-13 06:30:42 51°14.733 2°54.558 20.190605 0.031366 0.174089 -0.073352
2004-07-13 06:30:48 51°14.751 2°54.539 20.209086 0.031366 0.174086 -0.073352
2004-07-13 06:30:52 51°14.763 2°54.525 20.222439 0.031366 0.174092 -0.073352
2004-07-13 06:30:58 51°14.78 2°54.506 20.21316 0.031366 0.174086 -0.039642
2004-07-13 06:31:02 51°14.792 2°54.493 20.21316 0.031366 0.174086 -0.039642
2004-07-13 06:31:08 51°14.81 2°54.474 20.249742 0.031366 0.174092 -0.073352
2004-07-13 06:31:12 51°14.822 2°54.461 20.198757 0.031366 0.174089 -0.073352
2004-07-13 06:31:18 51°14.84 2°54.441 20.254862 0.031366 0.174092 -0.073352
2004-07-13 06:31:22 51°14.852 2°54.427 20.211264 0.031366 0.174092 -0.073352
2004-07-13 06:31:28 51°14.869 2°54.407 20.24083 0.031366 0.174092 -0.107061
2004-07-13 06:31:33 51°14.884 2°54.39 20.24083 0.031366 0.174092 -0.107061
2004-07-13 06:31:37 51°14.895 2°54.376 20.211869 0.031366 0.174095 -0.073352
2004-07-13 06:31:42 51°14.91 2°54.359 20.239983 0.031366 0.174092 -0.073352
2004-07-13 06:31:48 51°14.927 2°54.339 20.216993 0.031366 0.174092 -0.073352
2004-07-13 06:31:53 51°14.941 2°54.322 20.187054 0.031366 0.174086 -0.073352
2004-07-13 06:31:57 51°14.953 2°54.308 20.250467 0.031366 0.174092 -0.073352
2004-07-13 06:32:02 51°14.967 2°54.292 20.250467 0.031366 0.174092 -0.073352
2004-07-13 06:32:05 51°14.976 2°54.282 20.207795 0.031366 0.174097 -0.073352
2004-07-13 06:32:13 51°15 2°54.256 20.241838 0.031366 0.174089 -0.073352
2004-07-13 06:32:17 51°15.011 2°54.243 20.256797 0.031366 0.174095 -0.073352
2004-07-13 06:32:22 51°15.026 2°54.226 20.213806 0.031366 0.174095 -0.039642
2004-07-13 06:32:27 51°15.041 2°54.21 20.249338 0.031366 0.174097 -0.073352
2004-07-13 06:32:33 51°15.058 2°54.189 20.249338 0.031366 0.174097 -0.073352
2004-07-13 06:32:37 51°15.07 2°54.176 20.207553 0.031366 0.174095 -0.039642
2004-07-13 06:32:42 51°15.084 2°54.159 20.231958 0.031366 0.174095 -0.073352
2004-07-13 06:32:48 51°15.102 2°54.138 20.258128 0.031366 0.174095 -0.073352
2004-07-13 06:32:52 51°15.113 2°54.124 20.227924 0.031366 0.174097 -0.073352
2004-07-13 06:32:58 51°15.131 2°54.104 20.21191 0.031366 0.174095 -0.107061
2004-07-13 06:33:02 51°15.143 2°54.09 20.21191 0.031366 0.174095 -0.107061
2004-07-13 06:33:06 51°15.154 2°54.076 20.242282 0.031366 0.174097 -0.039642
2004-07-13 06:33:13 51°15.175 2°54.052 20.232401 0.031366 0.174097 -0.039642
2004-07-13 06:33:16 51°15.183 2°54.041 20.226472 0.031366 0.1741 -0.039642
2004-07-13 06:33:22 51°15.201 2°54.021 20.249701 0.031366 0.174097 -0.073352
2004-07-13 06:33:27 51°15.215 2°54.004 20.24333 0.031366 0.1741 -0.073352
2004-07-13 06:33:33 51°15.233 2°53.983 20.24333 0.031366 0.1741 -0.073352
2004-07-13 06:33:37 51°15.244 2°53.969 20.216226 0.031366 0.1741 -0.107061
2004-07-13 06:33:42 51°15.259 2°53.952 20.241515 0.031366 0.174095 -0.039642
2004-07-13 06:33:48 51°15.276 2°53.931 20.228166 0.031366 0.1741 -0.073352
2004-07-13 06:33:53 51°15.291 2°53.913 20.218122 0.031366 0.1741 -0.039642
2004-07-13 06:33:57 51°15.302 2°53.899 20.229215 0.031366 0.174103 -0.073352
2004-07-13 06:34:02 51°15.317 2°53.881 20.229215 0.031366 0.174103 -0.073352
2004-07-13 06:34:08 51°15.334 2°53.86 20.228973 0.031366 0.1741 -0.073352
2004-07-13 06:34:12 51°15.346 2°53.846 20.23833 0.031366 0.174103 -0.107061
2004-07-13 06:34:16 51°15.357 2°53.832 20.222277 0.031366 0.1741 -0.073352
2004-07-13 06:34:22 51°15.375 2°53.81 20.224415 0.031366 0.174103 -0.039642
2004-07-13 06:34:28 51°15.392 2°53.789 20.244903 0.031366 0.1741 -0.039642
2004-07-13 06:34:32 51°15.403 2°53.775 20.244903 0.031366 0.1741 -0.039642
2004-07-13 06:34:38 51°15.421 2°53.754 20.228449 0.031366 0.174106 -0.073352
2004-07-13 06:34:42 51°15.432 2°53.74 20.258773 0.031366 0.174103 -0.107061
2004-07-13 06:34:48 51°15.45 2°53.719 20.2274 0.031366 0.174106 -0.073352
2004-07-13 06:34:52 51°15.462 2°53.706 20.229901 0.031366 0.1741 -0.107061
2004-07-13 06:34:57 51°15.477 2°53.691 20.220946 0.031366 0.174106 -0.107061
2004-07-13 06:35:02 51°15.493 2°53.676 20.220946 0.031366 0.174106 -0.107061
2004-07-13 06:35:08 51°15.512 2°53.659 20.220543 0.031366 0.174103 -0.039642
2004-07-13 06:35:13 51°15.527 2°53.646 20.259579 0.031366 0.174108 -0.073352
2004-07-13 06:35:16 51°15.537 2°53.638 20.242725 0.031366 0.174103 -0.073352
2004-07-13 06:35:22 51°15.556 2°53.621 20.229901 0.031366 0.174106 -0.039642
2004-07-13 06:35:28 51°15.575 2°53.605 20.251475 0.031366 0.174108 -0.039642
2004-07-13 06:35:33 51°15.591 2°53.592 20.251475 0.031366 0.174108 -0.039642
2004-07-13 06:35:37 51°15.603 2°53.582 20.226028 0.031366 0.174106 -0.073352
2004-07-13 06:35:42 51°15.62 2°53.569 20.24083 0.031366 0.174106 -0.107061
2004-07-13 06:35:47 51°15.635 2°53.555 20.253975 0.031366 0.174108 -0.039642
2004-07-13 06:35:52 51°15.651 2°53.542 20.240144 0.031366 0.174111 -0.107061
2004-07-13 06:35:56 51°15.664 2°53.531 20.256152 0.031366 0.174111 -0.073352
2004-07-13 06:36:02 51°15.683 2°53.514 20.256152 0.031366 0.174111 -0.073352
2004-07-13 06:36:08 51°15.702 2°53.497 20.241596 0.031366 0.174114 -0.073352
2004-07-13 06:36:13 51°15.717 2°53.483 20.23716 0.031366 0.174111 -0.073352
2004-07-13 06:36:18 51°15.733 2°53.469 20.251475 0.031366 0.174111 -0.073352
2004-07-13 06:36:22 51°15.746 2°53.458 20.25708 0.031366 0.174106 -0.039642
2004-07-13 06:36:28 51°15.765 2°53.441 20.226916 0.031366 0.174108 -0.107061
2004-07-13 06:36:32 51°15.777 2°53.43 20.226916 0.031366 0.174108 -0.107061
2004-07-13 06:36:36 51°15.79 2°53.419 20.235224 0.031366 0.174108 -0.073352
2004-07-13 06:36:41 51°15.806 2°53.406 20.26478 0.031366 0.174108 -0.073352
2004-07-13 06:36:48 51°15.828 2°53.387 20.242322 0.031366 0.174111 -0.039642
2004-07-13 06:36:52 51°15.841 2°53.376 20.247282 0.031366 0.174111 -0.073352
2004-07-13 06:36:56 51°15.854 2°53.365 20.236958 0.031366 0.174111 -0.073352
2004-07-13 06:37:02 51°15.873 2°53.349 20.236958 0.031366 0.174111 -0.073352
2004-07-13 06:37:07 51°15.889 2°53.335 20.265385 0.031366 0.174111 -0.107061
2004-07-13 06:37:13 51°15.908 2°53.318 20.261716 0.031366 0.174114 -0.073352
2004-07-13 06:37:17 51°15.921 2°53.307 20.246556 0.031366 0.174114 -0.039642
2004-07-13 06:37:22 51°15.937 2°53.294 20.243935 0.031366 0.174117 -0.073352
2004-07-13 06:37:28 51°15.956 2°53.277 20.246072 0.031366 0.174117 -0.073352
2004-07-13 06:37:33 51°15.972 2°53.263 20.246072 0.031366 0.174117 -0.073352
2004-07-13 06:37:38 51°15.988 2°53.249 20.241193 0.031366 0.174111 -0.073352
2004-07-13 06:37:42 51°16.001 2°53.237 20.240991 0.031366 0.174114 -0.073352
2004-07-13 06:37:45 51°16.01 2°53.229 20.252443 0.031366 0.174111 -0.073352
2004-07-13 06:37:53 51°16.036 2°53.206 20.253975 0.031366 0.174117 -0.073352
2004-07-13 06:37:58 51°16.052 2°53.192 20.266796 0.031366 0.174111 -0.107061
2004-07-13 06:38:02 51°16.065 2°53.181 20.266796 0.031366 0.174111 -0.107061
2004-07-13 06:38:08 51°16.084 2°53.165 20.247685 0.031366 0.174117 -0.039642
2004-07-13 06:38:13 51°16.1 2°53.151 20.246556 0.031366 0.174111 -0.073352
2004-07-13 06:38:17 51°16.113 2°53.14 20.26353 0.031366 0.174111 -0.107061
2004-07-13 06:38:22 51°16.129 2°53.126 20.245588 0.031366 0.174117 -0.073352
2004-07-13 06:38:28 51°16.148 2°53.11 20.269537 0.031366 0.174117 -0.073352
2004-07-13 06:38:32 51°16.161 2°53.099 20.269537 0.031366 0.174117 -0.073352
2004-07-13 06:38:37 51°16.177 2°53.085 20.263691 0.031366 0.174117 -0.073352
2004-07-13 06:38:42 51°16.193 2°53.071 20.280379 0.031366 0.17412 -0.107061
2004-07-13 06:38:46 51°16.205 2°53.06 20.247121 0.031366 0.174117 -0.073352
2004-07-13 06:38:52 51°16.224 2°53.044 20.246072 0.031366 0.17412 -0.107061
2004-07-13 06:38:56 51°16.237 2°53.033 20.261152 0.031366 0.174114 -0.073352
2004-07-13 06:39:02 51°16.256 2°53.017 20.261152 0.031366 0.174114 -0.073352
2004-07-13 06:39:07 51°16.272 2°53.005 20.266352 0.031366 0.174117 -0.107061
2004-07-13 06:39:12 51°16.289 2°52.992 20.252 0.031366 0.17412 -0.073352
2004-07-13 06:39:18 51°16.308 2°52.978 20.281347 0.031366 0.174122 -0.073352
2004-07-13 06:39:22 51°16.322 2°52.969 20.261958 0.031366 0.174122 -0.107061
2004-07-13 06:39:28 51°16.342 2°52.956 20.253814 0.031366 0.17412 -0.073352
2004-07-13 06:39:32 51°16.355 2°52.947 20.253814 0.031366 0.17412 -0.073352
2004-07-13 06:39:38 51°16.375 2°52.934 20.264699 0.031366 0.174125 -0.107061
2004-07-13 06:39:42 51°16.388 2°52.925 20.28183 0.031366 0.174122 -0.039642
2004-07-13 06:39:48 51°16.408 2°52.911 20.260507 0.031366 0.174122 -0.073352
2004-07-13 06:39:53 51°16.424 2°52.9 20.270665 0.031366 0.174125 -0.073352
2004-07-13 06:39:57 51°16.437 2°52.891 20.263933 0.031366 0.17412 -0.107061
2004-07-13 06:40:02 51°16.453 2°52.88 20.263933 0.031366 0.17412 -0.107061
2004-07-13 06:40:08 51°16.473 2°52.866 20.257443 0.031366 0.174122 -0.107061
2004-07-13 06:40:12 51°16.486 2°52.857 20.274857 0.031366 0.174122 -0.107061
2004-07-13 06:40:17 51°16.502 2°52.845 20.27917 0.031366 0.17412 -0.073352
2004-07-13 06:40:22 51°16.518 2°52.833 20.266392 0.031366 0.174122 -0.107061
2004-07-13 06:40:28 51°16.537 2°52.82 20.275905 0.031366 0.17412 -0.107061
2004-07-13 06:40:33 51°16.553 2°52.808 20.275905 0.031366 0.17412 -0.107061
2004-07-13 06:40:36 51°16.563 2°52.802 20.258813 0.031366 0.174125 -0.073352
2004-07-13 06:40:42 51°16.582 2°52.788 20.284087 0.031366 0.174131 -0.073352
2004-07-13 06:40:47 51°16.598 2°52.778 20.259579 0.031366 0.174131 -0.073352
2004-07-13 06:40:52 51°16.614 2°52.766 20.266634 0.031366 0.174128 -0.107061
2004-07-13 06:40:56 51°16.627 2°52.757 20.268529 0.031366 0.174128 -0.073352
2004-07-13 06:41:02 51°16.647 2°52.744 20.268529 0.031366 0.174128 -0.073352
2004-07-13 06:41:08 51°16.666 2°52.73 20.27131 0.031366 0.174128 -0.107061
2004-07-13 06:41:12 51°16.68 2°52.721 20.278404 0.031366 0.174131 -0.073352
2004-07-13 06:41:18 51°16.699 2°52.707 20.275825 0.031366 0.174128 -0.073352
2004-07-13 06:41:22 51°16.712 2°52.698 20.262563 0.031366 0.174125 -0.107061
2004-07-13 06:41:28 51°16.732 2°52.685 20.282193 0.031366 0.174125 -0.107061
2004-07-13 06:41:33 51°16.748 2°52.675 20.282193 0.031366 0.174125 -0.107061
2004-07-13 06:41:36 51°16.758 2°52.669 20.280057 0.031366 0.174122 -0.107061
2004-07-13 06:41:42 51°16.778 2°52.657 20.288278 0.031366 0.174128 -0.107061
2004-07-13 06:41:46 51°16.791 2°52.649 20.277719 0.031366 0.174131 -0.073352
2004-07-13 06:41:52 51°16.81 2°52.638 20.26345 0.031366 0.174128 -0.107061
2004-07-13 06:41:56 51°16.823 2°52.631 20.294283 0.031366 0.174134 -0.073352
2004-07-13 06:42:02 51°16.842 2°52.619 20.294283 0.031366 0.174134 -0.073352
2004-07-13 06:42:07 51°16.859 2°52.609 20.290575 0.031366 0.174134 -0.073352
2004-07-13 06:42:12 51°16.875 2°52.599 20.279734 0.031366 0.174128 -0.073352
2004-07-13 06:42:17 51°16.891 2°52.589 20.280299 0.031366 0.174136 -0.073352
2004-07-13 06:42:22 51°16.907 2°52.579 20.276913 0.031366 0.174131 -0.14077
2004-07-13 06:42:28 51°16.926 2°52.567 20.289971 0.031366 0.174131 -0.073352
2004-07-13 06:42:33 51°16.942 2°52.557 20.289971 0.031366 0.174131 -0.073352
2004-07-13 06:42:37 51°16.955 2°52.548 20.291261 0.031366 0.174128 -0.107061
2004-07-13 06:42:42 51°16.971 2°52.538 20.290777 0.031366 0.174136 -0.073352
2004-07-13 06:42:48 51°16.99 2°52.526 20.290656 0.031366 0.174139 -0.073352
2004-07-13 06:42:52 51°17.003 2°52.518 20.281951 0.031366 0.174136 -0.107061
2004-07-13 06:42:57 51°17.019 2°52.508 20.296016 0.031366 0.174131 -0.073352
2004-07-13 06:43:02 51°17.035 2°52.499 20.296016 0.031366 0.174131 -0.073352
2004-07-13 06:43:08 51°17.055 2°52.491 20.277477 0.031366 0.174131 -0.073352
2004-07-13 06:43:13 51°17.072 2°52.487 20.274051 0.031366 0.174125 -0.107061
2004-07-13 06:43:18 51°17.089 2°52.483 20.29384 0.031366 0.174125 -0.073352
2004-07-13 06:43:22 51°17.103 2°52.481 20.280057 0.031366 0.174128 -0.14077
2004-07-13 06:43:28 51°17.124 2°52.479 20.301294 0.031366 0.174131 -0.107061
2004-07-13 06:43:33 51°17.141 2°52.476 20.301294 0.031366 0.174131 -0.107061
2004-07-13 06:43:37 51°17.155 2°52.476 20.287755 0.031366 0.174131 -0.107061
2004-07-13 06:43:42 51°17.172 2°52.474 20.295492 0.031366 0.174134 -0.14077
2004-07-13 06:43:47 51°17.189 2°52.473 20.292993 0.031366 0.174131 -0.107061
2004-07-13 06:43:53 51°17.21 2°52.472 20.304316 0.031366 0.174136 -0.107061
2004-07-13 06:43:58 51°17.227 2°52.47 20.294847 0.031366 0.174131 -0.073352
2004-07-13 06:44:02 51°17.241 2°52.469 20.294847 0.031366 0.174131 -0.073352
2004-07-13 06:44:08 51°17.262 2°52.467 20.287069 0.031366 0.174131 -0.073352
2004-07-13 06:44:13 51°17.279 2°52.465 20.309795 0.031366 0.174131 -0.107061
2004-07-13 06:44:17 51°17.293 2°52.463 20.294363 0.031366 0.174136 -0.107061
2004-07-13 06:44:22 51°17.31 2°52.462 20.307821 0.031366 0.174134 -0.073352
2004-07-13 06:44:28 51°17.33 2°52.459 20.296257 0.031366 0.174136 -0.073352
2004-07-13 06:44:33 51°17.348 2°52.457 20.296257 0.031366 0.174136 -0.073352
2004-07-13 06:44:38 51°17.365 2°52.455 20.299924 0.031366 0.174142 -0.107061
2004-07-13 06:44:42 51°17.379 2°52.453 20.312857 0.031366 0.174142 -0.073352
2004-07-13 06:44:48 51°17.399 2°52.45 20.299239 0.031366 0.174139 -0.073352
2004-07-13 06:44:53 51°17.416 2°52.448 20.301979 0.031366 0.174136 -0.107061
2004-07-13 06:44:57 51°17.43 2°52.446 20.298111 0.031366 0.174142 -0.073352
2004-07-13 06:45:02 51°17.447 2°52.444 20.298111 0.031366 0.174142 -0.073352
2004-07-13 06:45:08 51°17.468 2°52.441 20.311084 0.031366 0.174136 -0.107061
2004-07-13 06:45:13 51°17.485 2°52.439 20.31467 0.031366 0.174139 -0.107061
2004-07-13 06:45:17 51°17.499 2°52.437 20.313542 0.031366 0.174145 -0.107061
2004-07-13 06:45:22 51°17.516 2°52.435 20.298312 0.031366 0.174139 -0.073352
2004-07-13 06:45:28 51°17.537 2°52.433 20.302865 0.031366 0.174139 -0.107061
2004-07-13 06:45:33 51°17.555 2°52.433 20.302865 0.031366 0.174139 -0.107061
2004-07-13 06:45:37 51°17.569 2°52.432 20.303027 0.031366 0.174145 -0.107061
2004-07-13 06:45:42 51°17.586 2°52.432 20.316362 0.031366 0.174142 -0.073352
2004-07-13 06:45:48 51°17.607 2°52.432 20.306371 0.031366 0.174136 -0.107061
2004-07-13 06:45:53 51°17.625 2°52.433 20.317731 0.031262 0.173562 -0.14077
2004-07-13 06:45:57 51°17.639 2°52.433 20.317772 0.031366 0.174142 -0.107061
2004-07-13 06:46:02 51°17.656 2°52.433 20.317772 0.031366 0.174142 -0.107061
2004-07-13 06:46:07 51°17.674 2°52.433 20.321961 0.031262 0.173562 -0.107061
2004-07-13 06:46:12 51°17.691 2°52.433 20.32043 0.031366 0.174142 -0.14077
2004-07-13 06:46:18 51°17.712 2°52.433 20.312776 0.031262 0.173556 -0.107061
2004-07-13 06:46:22 51°17.726 2°52.433 20.324257 0.031366 0.174145 -0.107061
2004-07-13 06:46:28 51°17.747 2°52.434 20.320752 0.031262 0.173565 -0.107061
2004-07-13 06:46:33 51°17.765 2°52.434 20.320752 0.031262 0.173565 -0.107061
2004-07-13 06:46:37 51°17.778 2°52.434 20.309513 0.031366 0.174142 -0.14077
2004-07-13 06:46:41 51°17.792 2°52.434 20.309433 0.031262 0.173556 -0.107061
2004-07-13 06:46:48 51°17.817 2°52.433 20.328526 0.031366 0.174142 -0.107061
2004-07-13 06:46:53 51°17.834 2°52.433 20.311769 0.031262 0.173562 -0.107061
2004-07-13 06:46:58 51°17.851 2°52.432 20.3276 0.031366 0.174145 -0.14077
2004-07-13 06:47:02 51°17.865 2°52.432 20.3276 0.031366 0.174145 -0.14077
2004-07-13 06:47:08 51°17.886 2°52.432 20.319826 0.031262 0.173568 -0.107061
2004-07-13 06:47:13 51°17.903 2°52.432 20.316281 0.031262 0.173565 -0.14077
2004-07-13 06:47:17 51°17.917 2°52.432 20.333601 0.031262 0.173568 -0.107061
2004-07-13 06:47:21 51°17.931 2°52.433 20.315113 0.031262 0.173562 -0.107061
2004-07-13 06:47:28 51°17.955 2°52.433 20.325989 0.031262 0.173565 -0.14077
2004-07-13 06:47:33 51°17.972 2°52.433 20.325989 0.031262 0.173565 -0.14077
2004-07-13 06:47:37 51°17.986 2°52.434 20.317409 0.031262 0.173565 -0.107061
2004-07-13 06:47:42 51°18.003 2°52.434 20.323129 0.031262 0.17357 -0.107061
2004-07-13 06:47:48 51°18.023 2°52.439 20.319463 0.031262 0.173559 -0.107061
2004-07-13 06:47:52 51°18.036 2°52.442 20.314227 0.031366 0.174139 -0.14077
2004-07-13 06:47:58 51°18.056 2°52.451 20.321115 0.031262 0.173559 -0.14077
2004-07-13 06:48:02 51°18.069 2°52.456 20.321115 0.031262 0.173559 -0.14077
2004-07-13 06:48:08 51°18.089 2°52.466 20.32913 0.031262 0.173562 -0.14077
2004-07-13 06:48:12 51°18.102 2°52.473 20.327761 0.031262 0.173559 -0.107061
2004-07-13 06:48:16 51°18.114 2°52.48 20.327761 0.031262 0.173556 -0.14077
2004-07-13 06:48:22 51°18.134 2°52.493 20.316321 0.031262 0.173554 -0.107061
2004-07-13 06:48:28 51°18.153 2°52.506 20.319544 0.031262 0.173548 -0.14077
2004-07-13 06:48:32 51°18.166 2°52.516 20.319544 0.031262 0.173548 -0.14077
2004-07-13 06:48:35 51°18.176 2°52.523 20.319463 0.031262 0.173554 -0.14077
2004-07-13 06:48:42 51°18.198 2°52.539 20.323129 0.031262 0.173554 -0.107061
2004-07-13 06:48:48 51°18.217 2°52.553 20.331023 0.031262 0.173548 -0.107061
2004-07-13 06:48:52 51°18.229 2°52.562 20.331789 0.031262 0.173559 -0.107061
2004-07-13 06:48:57 51°18.246 2°52.574 20.326472 0.031262 0.173559 -0.14077
2004-07-13 06:49:02 51°18.262 2°52.585 20.326472 0.031262 0.173559 -0.14077
2004-07-13 06:49:08 51°18.281 2°52.598 20.335574 0.031262 0.173559 -0.14077
2004-07-13 06:49:13 51°18.297 2°52.61 20.328647 0.031262 0.173559 -0.14077
2004-07-13 06:49:18 51°18.313 2°52.62 20.338675 0.031262 0.173565 -0.107061
2004-07-13 06:49:22 51°18.326 2°52.629 20.32905 0.031262 0.173565 -0.14077
2004-07-13 06:49:28 51°18.345 2°52.643 20.335735 0.031262 0.173562 -0.107061
2004-07-13 06:49:33 51°18.361 2°52.654 20.335735 0.031262 0.173562 -0.107061
2004-07-13 06:49:37 51°18.374 2°52.662 20.337628 0.031262 0.173559 -0.14077
2004-07-13 06:49:42 51°18.39 2°52.674 20.336339 0.031262 0.173556 -0.107061
2004-07-13 06:49:48 51°18.41 2°52.687 20.334124 0.031262 0.173554 -0.14077
2004-07-13 06:49:53 51°18.426 2°52.698 20.336501 0.031262 0.173565 -0.17448
2004-07-13 06:49:57 51°18.439 2°52.707 20.341736 0.031262 0.17357 -0.14077
2004-07-13 06:50:02 51°18.455 2°52.718 20.341736 0.031262 0.17357 -0.14077
2004-07-13 06:50:06 51°18.468 2°52.727 20.338232 0.031262 0.173568 -0.17448
2004-07-13 06:50:13 51°18.491 2°52.742 20.338756 0.031262 0.173568 -0.14077
2004-07-13 06:50:18 51°18.508 2°52.754 20.33944 0.031262 0.173565 -0.14077
2004-07-13 06:50:21 51°18.518 2°52.76 20.341897 0.031262 0.173565 -0.107061
2004-07-13 06:50:28 51°18.541 2°52.776 20.341414 0.031262 0.173565 -0.14077
2004-07-13 06:50:32 51°18.554 2°52.784 20.341414 0.031262 0.173565 -0.14077
2004-07-13 06:50:38 51°18.574 2°52.798 20.341897 0.031262 0.173565 -0.107061
2004-07-13 06:50:42 51°18.587 2°52.806 20.34234 0.031262 0.173565 -0.14077
2004-07-13 06:50:48 51°18.607 2°52.82 20.344756 0.031262 0.173565 -0.107061
2004-07-13 06:50:53 51°18.623 2°52.832 20.3545 0.031262 0.173565 -0.14077
2004-07-13 06:50:57 51°18.637 2°52.84 20.347293 0.031262 0.173568 -0.107061
2004-07-13 06:51:02 51°18.653 2°52.852 20.347293 0.031262 0.173568 -0.107061
2004-07-13 06:51:07 51°18.67 2°52.863 20.350916 0.031262 0.173568 -0.14077
2004-07-13 06:51:13 51°18.69 2°52.876 20.35764 0.031262 0.17357 -0.14077
2004-07-13 06:51:17 51°18.703 2°52.885 20.352084 0.031262 0.17357 -0.14077
2004-07-13 06:51:22 51°18.72 2°52.895 20.346366 0.031262 0.173568 -0.14077
2004-07-13 06:51:28 51°18.739 2°52.909 20.362069 0.031262 0.173565 -0.107061
2004-07-13 06:51:33 51°18.755 2°52.92 20.362069 0.031262 0.173565 -0.107061
2004-07-13 06:51:37 51°18.768 2°52.929 20.351239 0.031262 0.173568 -0.14077
2004-07-13 06:51:42 51°18.785 2°52.939 20.355627 0.031262 0.17357 -0.107061
2004-07-13 06:51:45 51°18.795 2°52.946 20.359049 0.031262 0.173568 -0.14077
2004-07-13 06:51:53 51°18.821 2°52.963 20.352527 0.031262 0.17357 -0.107061
2004-07-13 06:51:57 51°18.834 2°52.971 20.363719 0.031262 0.173573 -0.14077
2004-07-13 06:52:02 51°18.851 2°52.982 20.363719 0.031262 0.173573 -0.14077
2004-07-13 06:52:08 51°18.871 2°52.995 20.355184 0.031262 0.17357 -0.107061
2004-07-13 06:52:12 51°18.884 2°53.004 20.360338 0.031262 0.17357 -0.107061
2004-07-13 06:52:17 51°18.9 2°53.014 20.364605 0.031262 0.17357 -0.107061
2004-07-13 06:52:22 51°18.916 2°53.025 20.360217 0.031262 0.173568 -0.14077
2004-07-13 06:52:28 51°18.936 2°53.039 20.370764 0.031262 0.173573 -0.107061
2004-07-13 06:52:32 51°18.949 2°53.047 20.370764 0.031262 0.173573 -0.107061
2004-07-13 06:52:38 51°18.969 2°53.06 20.35921 0.031262 0.17357 -0.073352
2004-07-13 06:52:42 51°18.982 2°53.068 20.365289 0.031262 0.17357 -0.14077
2004-07-13 06:52:48 51°19.002 2°53.081 20.370603 0.031262 0.173573 -0.14077
2004-07-13 06:52:53 51°19.018 2°53.091 20.366537 0.031262 0.173573 -0.107061
2004-07-13 06:52:57 51°19.031 2°53.1 20.36537 0.031262 0.173576 -0.14077
2004-07-13 06:53:02 51°19.047 2°53.11 20.36537 0.031262 0.173576 -0.14077
2004-07-13 06:53:08 51°19.067 2°53.123 20.366215 0.031262 0.173579 -0.14077
2004-07-13 06:53:13 51°19.083 2°53.133 20.368187 0.031262 0.173573 -0.14077
2004-07-13 06:53:18 51°19.1 2°53.144 20.375755 0.031262 0.17357 -0.17448
2004-07-13 06:53:21 51°19.11 2°53.15 20.369798 0.031262 0.17357 -0.14077
2004-07-13 06:53:27 51°19.129 2°53.163 20.377526 0.031262 0.173579 -0.17448
2004-07-13 06:53:33 51°19.149 2°53.175 20.377526 0.031262 0.173579 -0.17448
2004-07-13 06:53:36 51°19.159 2°53.182 20.3733 0.031262 0.173576 -0.17448
2004-07-13 06:53:41 51°19.175 2°53.192 20.381711 0.031262 0.173579 -0.14077
2004-07-13 06:53:48 51°19.198 2°53.207 20.372696 0.031262 0.173576 -0.107061
2004-07-13 06:53:52 51°19.212 2°53.215 20.372132 0.031262 0.173576 -0.14077
2004-07-13 06:53:57 51°19.227 2°53.226 20.383764 0.031262 0.173579 -0.17448
2004-07-13 06:54:02 51°19.244 2°53.236 20.383764 0.031262 0.173579 -0.17448
2004-07-13 06:54:07 51°19.26 2°53.246 20.377526 0.031262 0.173576 -0.107061
2004-07-13 06:54:13 51°19.28 2°53.259 20.373863 0.031262 0.173573 -0.107061
2004-07-13 06:54:17 51°19.293 2°53.267 20.384971 0.031262 0.173576 -0.14077
2004-07-13 06:54:22 51°19.31 2°53.277 20.377445 0.031262 0.173573 -0.14077
2004-07-13 06:54:28 51°19.329 2°53.291 20.388714 0.031262 0.173579 -0.14077
2004-07-13 06:54:30 51°19.336 2°53.295 20.388714 0.031262 0.173579 -0.14077
2004-07-13 06:54:38 51°19.361 2°53.312 20.377123 0.031262 0.173576 -0.17448
2004-07-13 06:54:42 51°19.374 2°53.32 20.383241 0.031262 0.173579 -0.14077
2004-07-13 06:54:48 51°19.393 2°53.332 20.389318 0.031262 0.173593 -0.14077
2004-07-13 06:54:52 51°19.406 2°53.34 20.386259 0.031262 0.173595 -0.14077
2004-07-13 06:54:56 51°19.419 2°53.349 20.394549 0.031262 0.17359 -0.14077
2004-07-13 06:55:02 51°19.438 2°53.361 20.394549 0.031262 0.17359 -0.14077
2004-07-13 06:55:07 51°19.454 2°53.37 20.385293 0.031262 0.173584 -0.14077
2004-07-13 06:55:10 51°19.464 2°53.377 20.386782 0.031262 0.173587 -0.14077
2004-07-13 06:55:18 51°19.49 2°53.393 20.39471 0.031262 0.173581 -0.107061
2004-07-13 06:55:22 51°19.503 2°53.401 20.390002 0.031262 0.173581 -0.14077
2004-07-13 06:55:28 51°19.523 2°53.413 20.388835 0.031262 0.173581 -0.14077
2004-07-13 06:55:32 51°19.536 2°53.423 20.388835 0.031262 0.173581 -0.14077
2004-07-13 06:55:36 51°19.549 2°53.432 20.395273 0.031262 0.173581 -0.107061
2004-07-13 06:55:42 51°19.569 2°53.445 20.393583 0.031262 0.173579 -0.17448
2004-07-13 06:55:47 51°19.585 2°53.456 20.400222 0.031262 0.173576 -0.107061
2004-07-13 06:55:50 51°19.595 2°53.463 20.395555 0.031262 0.173573 -0.17448
2004-07-13 06:55:58 51°19.62 2°53.482 20.39467 0.031262 0.173573 -0.14077
2004-07-13 06:56:02 51°19.633 2°53.491 20.39467 0.031262 0.173573 -0.14077
2004-07-13 06:56:08 51°19.653 2°53.505 20.395796 0.031262 0.173573 -0.107061
2004-07-13 06:56:13 51°19.668 2°53.516 20.397406 0.031262 0.17357 -0.14077
2004-07-13 06:56:16 51°19.678 2°53.524 20.39467 0.031262 0.173568 -0.14077
2004-07-13 06:56:21 51°19.694 2°53.535 20.399216 0.031262 0.17357 -0.14077
2004-07-13 06:56:28 51°19.717 2°53.551 20.402757 0.031262 0.173562 -0.17448
2004-07-13 06:56:32 51°19.729 2°53.561 20.402757 0.031262 0.173562 -0.17448
2004-07-13 06:56:37 51°19.746 2°53.573 20.400987 0.031262 0.17357 -0.17448
2004-07-13 06:56:42 51°19.761 2°53.584 20.410844 0.031262 0.173565 -0.14077
2004-07-13 06:56:48 51°19.781 2°53.598 20.407867 0.031262 0.173562 -0.17448
2004-07-13 06:56:52 51°19.794 2°53.607 20.411206 0.031262 0.173565 -0.17448
2004-07-13 06:56:57 51°19.81 2°53.618 20.411005 0.031262 0.17357 -0.14077
2004-07-13 06:57:01 51°19.823 2°53.627 20.411005 0.031262 0.17357 -0.14077
2004-07-13 06:57:08 51°19.845 2°53.643 20.405292 0.031262 0.173568 -0.14077
2004-07-13 06:57:12 51°19.858 2°53.652 20.40674 0.031262 0.173562 -0.17448
2004-07-13 06:57:17 51°19.874 2°53.664 20.414947 0.031262 0.173562 -0.14077
2004-07-13 06:57:22 51°19.891 2°53.675 20.412815 0.031262 0.173562 -0.17448
2004-07-13 06:57:27 51°19.907 2°53.687 20.416958 0.031262 0.173565 -0.14077
2004-07-13 06:57:32 51°19.923 2°53.698 20.416958 0.031262 0.173565 -0.14077
2004-07-13 06:57:38 51°19.942 2°53.712 20.409717 0.031262 0.173562 -0.17448
2004-07-13 06:57:42 51°19.956 2°53.722 20.408792 0.031262 0.173562 -0.14077
2004-07-13 06:57:48 51°19.975 2°53.736 20.41724 0.031262 0.173556 -0.17448
2004-07-13 06:57:53 51°19.991 2°53.747 20.41374 0.031262 0.173556 -0.107061
2004-07-13 06:57:57 51°20.004 2°53.756 20.421584 0.031262 0.173554 -0.17448
2004-07-13 06:58:02 51°20.02 2°53.768 20.421584 0.031262 0.173554 -0.17448
2004-07-13 06:58:07 51°20.036 2°53.78 20.415792 0.031262 0.173554 -0.14077
2004-07-13 06:58:13 51°20.055 2°53.794 20.418165 0.031262 0.173554 -0.14077
2004-07-13 06:58:17 51°20.068 2°53.804 20.424078 0.031262 0.173559 -0.17448
2004-07-13 06:58:22 51°20.085 2°53.816 20.41724 0.031262 0.173551 -0.17448
2004-07-13 06:58:28 51°20.104 2°53.83 20.419613 0.031262 0.173554 -0.17448
2004-07-13 06:58:33 51°20.121 2°53.841 20.419613 0.031262 0.173554 -0.17448
2004-07-13 06:58:35 51°20.127 2°53.846 20.425084 0.031262 0.173556 -0.17448
2004-07-13 06:58:42 51°20.15 2°53.862 20.431076 0.031262 0.173554 -0.14077
2004-07-13 06:58:48 51°20.169 2°53.876 20.428985 0.031262 0.173554 -0.17448
2004-07-13 06:58:52 51°20.182 2°53.885 20.424641 0.031262 0.173554 -0.17448
2004-07-13 06:58:56 51°20.196 2°53.894 20.425003 0.031262 0.173551 -0.14077
2004-07-13 06:59:00 51°20.208 2°53.904 20.425003 0.031262 0.173551 -0.14077
2004-07-13 06:59:07 51°20.231 2°53.919 20.430352 0.031262 0.173556 -0.17448
2004-07-13 06:59:13 51°20.251 2°53.933 20.425003 0.031262 0.173554 -0.17448
2004-07-13 06:59:17 51°20.264 2°53.942 20.428502 0.031262 0.173551 -0.17448
2004-07-13 06:59:22 51°20.28 2°53.953 20.427577 0.031262 0.173551 -0.208189
2004-07-13 06:59:28 51°20.3 2°53.967 20.434133 0.031262 0.173548 -0.17448
2004-07-13 06:59:33 51°20.316 2°53.979 20.434133 0.031262 0.173548 -0.17448
2004-07-13 06:59:37 51°20.33 2°53.988 20.429025 0.031262 0.173548 -0.14077
2004-07-13 06:59:42 51°20.346 2°54 20.430031 0.031262 0.173548 -0.14077
2004-07-13 06:59:47 51°20.362 2°54.011 20.435822 0.031262 0.173548 -0.208189
2004-07-13 06:59:52 51°20.378 2°54.023 20.430634 0.031262 0.173545 -0.14077
2004-07-13 06:59:56 51°20.391 2°54.033 20.443342 0.031262 0.173551 -0.208189
2004-07-13 07:00:02 51°20.41 2°54.046 20.443342 0.031262 0.173551 -0.208189
2004-07-13 07:00:08 51°20.429 2°54.059 20.444789 0.031262 0.173554 -0.14077
2004-07-13 07:00:13 51°20.445 2°54.071 20.431076 0.031262 0.173548 -0.208189
2004-07-13 07:00:16 51°20.454 2°54.077 20.446599 0.031262 0.173548 -0.17448
2004-07-13 07:00:22 51°20.473 2°54.091 20.437551 0.031262 0.173554 -0.17448
2004-07-13 07:00:28 51°20.492 2°54.104 20.4431 0.031262 0.173545 -0.17448
2004-07-13 07:00:32 51°20.504 2°54.113 20.4431 0.031262 0.173545 -0.17448
2004-07-13 07:00:35 51°20.513 2°54.119 20.438838 0.031262 0.17354 -0.17448
2004-07-13 07:00:42 51°20.536 2°54.135 20.447604 0.031262 0.17354 -0.14077
2004-07-13 07:00:48 51°20.554 2°54.149 20.442739 0.031262 0.173545 -0.17448
2004-07-13 07:00:53 51°20.57 2°54.16 20.448448 0.031262 0.173537 -0.17448
2004-07-13 07:00:57 51°20.583 2°54.169 20.446398 0.031262 0.173548 -0.17448
2004-07-13 07:01:02 51°20.599 2°54.181 20.446398 0.031262 0.173548 -0.17448
2004-07-13 07:01:08 51°20.619 2°54.195 20.452911 0.031262 0.173548 -0.208189
2004-07-13 07:01:13 51°20.635 2°54.206 20.445151 0.031262 0.173548 -0.17448
2004-07-13 07:01:17 51°20.648 2°54.215 20.445553 0.031262 0.173548 -0.17448
2004-07-13 07:01:22 51°20.664 2°54.228 20.452308 0.031262 0.173548 -0.14077
2004-07-13 07:01:28 51°20.684 2°54.242 20.455685 0.031262 0.173548 -0.17448
2004-07-13 07:01:32 51°20.697 2°54.252 20.455685 0.031262 0.173548 -0.17448
2004-07-13 07:01:37 51°20.713 2°54.263 20.450057 0.031262 0.173548 -0.17448
2004-07-13 07:01:42 51°20.73 2°54.275 20.447765 0.031262 0.173548 -0.208189
2004-07-13 07:01:48 51°20.749 2°54.289 20.457655 0.031262 0.173551 -0.17448
2004-07-13 07:01:53 51°20.765 2°54.3 20.45074 0.031262 0.173551 -0.17448
2004-07-13 07:01:57 51°20.778 2°54.308 20.453313 0.031262 0.173551 -0.208189
2004-07-13 07:02:02 51°20.793 2°54.32 20.453313 0.031262 0.173551 -0.208189
2004-07-13 07:02:06 51°20.806 2°54.329 20.45649 0.031262 0.173556 -0.107061
2004-07-13 07:02:13 51°20.828 2°54.346 20.456892 0.031262 0.173554 -0.208189
2004-07-13 07:02:17 51°20.841 2°54.354 20.456369 0.031262 0.173559 -0.17448
2004-07-13 07:02:22 51°20.857 2°54.366 20.460027 0.031262 0.173562 -0.241899
2004-07-13 07:02:28 51°20.877 2°54.38 20.459384 0.031262 0.173556 -0.14077
2004-07-13 07:02:33 51°20.893 2°54.393 20.459384 0.031262 0.173556 -0.14077
2004-07-13 07:02:36 51°20.903 2°54.399 20.456811 0.031262 0.173556 -0.208189
2004-07-13 07:02:42 51°20.922 2°54.413 20.463806 0.031262 0.173556 -0.17448
2004-07-13 07:02:48 51°20.941 2°54.427 20.463565 0.031262 0.173559 -0.17448
2004-07-13 07:02:52 51°20.955 2°54.436 20.465374 0.031262 0.173556 -0.14077
2004-07-13 07:02:55 51°20.965 2°54.443 20.470519 0.031262 0.173559 -0.17448
2004-07-13 07:03:02 51°20.987 2°54.46 20.470519 0.031262 0.173559 -0.17448
2004-07-13 07:03:05 51°20.997 2°54.467 20.463726 0.031262 0.173559 -0.208189
2004-07-13 07:03:13 51°21.022 2°54.486 20.467906 0.031262 0.173562 -0.17448
2004-07-13 07:03:17 51°21.035 2°54.496 20.466982 0.031262 0.173565 -0.17448
2004-07-13 07:03:22 51°21.051 2°54.508 20.471082 0.031262 0.173562 -0.17448
2004-07-13 07:03:28 51°21.07 2°54.521 20.467826 0.031262 0.173565 -0.208189
2004-07-13 07:03:33 51°21.086 2°54.533 20.467826 0.031262 0.173565 -0.208189
2004-07-13 07:03:36 51°21.096 2°54.54 20.477191 0.031262 0.173568 -0.14077
2004-07-13 07:03:42 51°21.115 2°54.554 20.470278 0.031262 0.173565 -0.17448
2004-07-13 07:03:48 51°21.134 2°54.567 20.478156 0.031262 0.173573 -0.17448
2004-07-13 07:03:53 51°21.15 2°54.579 20.477633 0.031262 0.173576 -0.14077
2004-07-13 07:03:57 51°21.163 2°54.588 20.473413 0.031262 0.17357 -0.208189
2004-07-13 07:04:02 51°21.179 2°54.6 20.473413 0.031262 0.17357 -0.208189
2004-07-13 07:04:08 51°21.198 2°54.614 20.477473 0.031262 0.173576 -0.208189
2004-07-13 07:04:12 51°21.211 2°54.623 20.474941 0.031262 0.173576 -0.208189
2004-07-13 07:04:18 51°21.23 2°54.637 20.48117 0.031262 0.173579 -0.208189
2004-07-13 07:04:23 51°21.247 2°54.649 20.480447 0.031262 0.173573 -0.208189
2004-07-13 07:04:28 51°21.263 2°54.662 20.478638 0.031262 0.173579 -0.17448
2004-07-13 07:04:32 51°21.276 2°54.671 20.478638 0.031262 0.173579 -0.17448
2004-07-13 07:04:36 51°21.289 2°54.68 20.480527 0.031262 0.173576 -0.208189
2004-07-13 07:04:42 51°21.308 2°54.695 20.488364 0.031262 0.173579 -0.208189
2004-07-13 07:04:48 51°21.327 2°54.709 20.48318 0.031262 0.173579 -0.208189
2004-07-13 07:04:53 51°21.343 2°54.72 20.482657 0.031262 0.173579 -0.17448
2004-07-13 07:04:57 51°21.356 2°54.73 20.484868 0.031262 0.173581 -0.17448
2004-07-13 07:05:02 51°21.373 2°54.742 20.484868 0.031262 0.173581 -0.17448
2004-07-13 07:05:08 51°21.392 2°54.757 20.48752 0.031262 0.173581 -0.208189
2004-07-13 07:05:13 51°21.408 2°54.77 20.489891 0.031262 0.17359 -0.17448
2004-07-13 07:05:17 51°21.421 2°54.781 20.493186 0.031262 0.173584 -0.208189
2004-07-13 07:05:22 51°21.437 2°54.794 20.494231 0.031262 0.173587 -0.208189
2004-07-13 07:05:27 51°21.453 2°54.806 20.48981 0.031262 0.173584 -0.208189
2004-07-13 07:05:33 51°21.472 2°54.822 20.48981 0.031262 0.173584 -0.208189
2004-07-13 07:05:37 51°21.485 2°54.832 20.488967 0.031262 0.173584 -0.17448
2004-07-13 07:05:43 51°21.503 2°54.848 20.498731 0.031262 0.173587 -0.208189
2004-07-13 07:05:48 51°21.519 2°54.86 20.49419 0.031262 0.173587 -0.208189
2004-07-13 07:05:53 51°21.535 2°54.873 20.497485 0.031262 0.173587 -0.17448
2004-07-13 07:05:58 51°21.551 2°54.886 20.499856 0.031262 0.17359 -0.17448
2004-07-13 07:06:03 51°21.567 2°54.899 20.499856 0.031262 0.17359 -0.17448
2004-07-13 07:06:08 51°21.583 2°54.912 20.49857 0.031262 0.173593 -0.17448
2004-07-13 07:06:11 51°21.592 2°54.921 20.495436 0.031262 0.17359 -0.208189
2004-07-13 07:06:16 51°21.609 2°54.934 20.502427 0.031262 0.17359 -0.17448
2004-07-13 07:06:21 51°21.625 2°54.948 20.498771 0.031262 0.173595 -0.208189
2004-07-13 07:06:28 51°21.648 2°54.967 20.497807 0.031262 0.17359 -0.17448
2004-07-13 07:06:33 51°21.664 2°54.98 20.497807 0.031262 0.17359 -0.17448
2004-07-13 07:06:37 51°21.676 2°54.99 20.50524 0.031262 0.173598 -0.17448
2004-07-13 07:06:42 51°21.693 2°55.003 20.502146 0.031262 0.173598 -0.208189
2004-07-13 07:06:48 51°21.712 2°55.018 20.505722 0.031262 0.173601 -0.17448
2004-07-13 07:06:53 51°21.728 2°55.031 20.509016 0.031262 0.173598 -0.208189
2004-07-13 07:06:56 51°21.738 2°55.039 20.50765 0.031262 0.173598 -0.208189
2004-07-13 07:07:02 51°21.756 2°55.055 20.50765 0.031262 0.173598 -0.208189
2004-07-13 07:07:08 51°21.775 2°55.071 20.504235 0.031262 0.173601 -0.17448
2004-07-13 07:07:13 51°21.792 2°55.083 20.506485 0.031262 0.173604 -0.17448
2004-07-13 07:07:15 51°21.798 2°55.089 20.506887 0.031262 0.173604 -0.208189
2004-07-13 07:07:26 51°21.834 2°55.117 20.508574 0.031262 0.173604 -0.17448
2004-07-13 07:07:32 51°21.854 2°55.132 20.514359 0.031262 0.173606 -0.208189
2004-07-13 07:07:37 51°21.87 2°55.144 20.517492 0.031262 0.173612 -0.208189
2004-07-13 07:07:41 51°21.883 2°55.154 20.510462 0.031262 0.173609 -0.17448
2004-07-13 07:07:45 51°21.896 2°55.164 20.513676 0.031262 0.173612 -0.208189
2004-07-13 07:07:52 51°21.919 2°55.181 20.517171 0.031262 0.173612 -0.208189
2004-07-13 07:07:57 51°21.936 2°55.193 20.517171 0.031262 0.173612 -0.208189
2004-07-13 07:08:02 51°21.952 2°55.205 20.521228 0.031262 0.173612 -0.17448
2004-07-13 07:08:06 51°21.965 2°55.214 20.521549 0.031262 0.173612 -0.17448
2004-07-13 07:08:10 51°21.978 2°55.224 20.516126 0.031262 0.173615 -0.241899
2004-07-13 07:08:16 51°21.998 2°55.239 20.516568 0.031262 0.17362 -0.17448
2004-07-13 07:08:21 51°22.015 2°55.251 20.517091 0.031262 0.173615 -0.208189
2004-07-13 07:08:25 51°22.027 2°55.261 20.517091 0.031262 0.173615 -0.208189
2004-07-13 07:08:32 51°22.05 2°55.278 20.52914 0.031262 0.17362 -0.17448
2004-07-13 07:08:35 51°22.059 2°55.285 20.523879 0.031262 0.17362 -0.208189
2004-07-13 07:08:42 51°22.082 2°55.302 20.526248 0.031262 0.17362 -0.17448
2004-07-13 07:08:46 51°22.095 2°55.311 20.52183 0.031262 0.17362 -0.241899
2004-07-13 07:08:52 51°22.115 2°55.325 20.527534 0.031262 0.17362 -0.17448
2004-07-13 07:08:57 51°22.131 2°55.337 20.527534 0.031262 0.17362 -0.17448
2004-07-13 07:09:02 51°22.147 2°55.349 20.523557 0.031262 0.17362 -0.208189
2004-07-13 07:09:06 51°22.16 2°55.358 20.526771 0.031262 0.173623 -0.17448
2004-07-13 07:09:12 51°22.18 2°55.373 20.533036 0.031262 0.173626 -0.208189
2004-07-13 07:09:17 51°22.196 2°55.385 20.526931 0.031262 0.17362 -0.17448
2004-07-13 07:09:22 51°22.212 2°55.397 20.531791 0.031262 0.173629 -0.241899
2004-07-13 07:09:27 51°22.228 2°55.409 20.531791 0.031262 0.173629 -0.241899
2004-07-13 07:09:32 51°22.244 2°55.421 20.535004 0.031262 0.173629 -0.208189
2004-07-13 07:09:36 51°22.258 2°55.431 20.532715 0.031262 0.173631 -0.17448
2004-07-13 07:09:41 51°22.274 2°55.444 20.530024 0.031262 0.173631 -0.208189
2004-07-13 07:09:45 51°22.287 2°55.453 20.535445 0.031262 0.173631 -0.208189
2004-07-13 07:09:52 51°22.31 2°55.47 20.536088 0.031262 0.173634 -0.241899
2004-07-13 07:09:57 51°22.326 2°55.483 20.538497 0.031262 0.173634 -0.17448
2004-07-13 07:10:01 51°22.339 2°55.492 20.538497 0.031262 0.173634 -0.17448
2004-07-13 07:10:06 51°22.356 2°55.505 20.533678 0.031262 0.173631 -0.208189
2004-07-13 07:10:12 51°22.375 2°55.519 20.538939 0.031262 0.173637 -0.241899
2004-07-13 07:10:17 51°22.392 2°55.532 20.537212 0.031262 0.173634 -0.208189
2004-07-13 07:10:22 51°22.408 2°55.544 20.543075 0.031262 0.173637 -0.208189
2004-07-13 07:10:26 51°22.421 2°55.554 20.543075 0.031262 0.173637 -0.208189
2004-07-13 07:10:32 51°22.441 2°55.568 20.54163 0.031262 0.173631 -0.241899
2004-07-13 07:10:37 51°22.457 2°55.581 20.540345 0.031262 0.173637 -0.208189
2004-07-13 07:10:42 51°22.473 2°55.592 20.545364 0.031262 0.17364 -0.241899
2004-07-13 07:10:46 51°22.486 2°55.602 20.541991 0.031262 0.17364 -0.241899
2004-07-13 07:10:52 51°22.506 2°55.617 20.542834 0.031262 0.173637 -0.241899
2004-07-13 07:10:57 51°22.522 2°55.63 20.542834 0.031262 0.173637 -0.241899
2004-07-13 07:11:02 51°22.539 2°55.642 20.550905 0.031262 0.17364 -0.208189
2004-07-13 07:11:06 51°22.552 2°55.652 20.545284 0.031262 0.173637 -0.208189
2004-07-13 07:11:11 51°22.568 2°55.664 20.552872 0.031262 0.173645 -0.241899
2004-07-13 07:11:16 51°22.585 2°55.676 20.549219 0.031262 0.173648 -0.241899
2004-07-13 07:11:21 51°22.601 2°55.689 20.548857 0.031262 0.173643 -0.275608
2004-07-13 07:11:25 51°22.614 2°55.698 20.548857 0.031262 0.173643 -0.275608
2004-07-13 07:11:32 51°22.636 2°55.715 20.553354 0.031262 0.173648 -0.17448
2004-07-13 07:11:37 51°22.653 2°55.727 20.549178 0.031262 0.173643 -0.208189
2004-07-13 07:11:41 51°22.666 2°55.737 20.548616 0.031262 0.173648 -0.241899
2004-07-13 07:11:46 51°22.682 2°55.748 20.558734 0.031262 0.173651 -0.208189
2004-07-13 07:11:52 51°22.702 2°55.764 20.553033 0.031262 0.173651 -0.17448
2004-07-13 07:11:56 51°22.715 2°55.773 20.553033 0.031262 0.173651 -0.17448
2004-07-13 07:12:01 51°22.731 2°55.785 20.558372 0.031262 0.173645 -0.208189
2004-07-13 07:12:05 51°22.744 2°55.795 20.554277 0.031262 0.173648 -0.241899
2004-07-13 07:12:12 51°22.767 2°55.811 20.551507 0.031262 0.173648 -0.208189
2004-07-13 07:12:15 51°22.777 2°55.819 20.560661 0.031262 0.173651 -0.241899
2004-07-13 07:12:22 51°22.8 2°55.836 20.556927 0.031262 0.173654 -0.17448
2004-07-13 07:12:26 51°22.813 2°55.846 20.556927 0.031262 0.173654 -0.17448
2004-07-13 07:12:32 51°22.832 2°55.861 20.559496 0.031262 0.173654 -0.241899
2004-07-13 07:12:35 51°22.842 2°55.869 20.561423 0.031262 0.173656 -0.241899
2004-07-13 07:12:42 51°22.865 2°55.886 20.559818 0.031262 0.173656 -0.241899
2004-07-13 07:12:46 51°22.878 2°55.895 20.563952 0.031262 0.173659 -0.208189
2004-07-13 07:12:52 51°22.897 2°55.91 20.569171 0.031262 0.173656 -0.208189
2004-07-13 07:12:56 51°22.91 2°55.92 20.569171 0.031262 0.173656 -0.208189
2004-07-13 07:13:01 51°22.926 2°55.932 20.561945 0.031262 0.173654 -0.241899
2004-07-13 07:13:06 51°22.942 2°55.944 20.570455 0.031262 0.173659 -0.241899
2004-07-13 07:13:12 51°22.961 2°55.959 20.564474 0.031262 0.173659 -0.241899
2004-07-13 07:13:17 51°22.978 2°55.972 20.567284 0.031262 0.173662 -0.241899
2004-07-13 07:13:22 51°22.994 2°55.985 20.567966 0.031262 0.173665 -0.208189
2004-07-13 07:13:26 51°23.007 2°55.995 20.568729 0.031262 0.173659 -0.208189
2004-07-13 07:13:32 51°23.026 2°56.01 20.568729 0.031262 0.173659 -0.208189
2004-07-13 07:13:37 51°23.043 2°56.023 20.570335 0.031262 0.173662 -0.241899
2004-07-13 07:13:42 51°23.059 2°56.035 20.572904 0.031262 0.173668 -0.208189
2004-07-13 07:13:46 51°23.072 2°56.045 20.57202 0.031262 0.173662 -0.241899
2004-07-13 07:13:52 51°23.092 2°56.06 20.572221 0.031262 0.173665 -0.17448
2004-07-13 07:13:56 51°23.105 2°56.07 20.572221 0.031262 0.173665 -0.17448
2004-07-13 07:14:00 51°23.118 2°56.081 20.572743 0.031262 0.173668 -0.241899
2004-07-13 07:14:04 51°23.131 2°56.09 20.578924 0.031262 0.173668 -0.208189
2004-07-13 07:14:12 51°23.158 2°56.11 20.573907 0.031262 0.173665 -0.241899
2004-07-13 07:14:17 51°23.174 2°56.123 20.572904 0.031262 0.173665 -0.241899
2004-07-13 07:14:22 51°23.19 2°56.135 20.581573 0.031262 0.173662 -0.208189
2004-07-13 07:14:26 51°23.203 2°56.145 20.581573 0.031262 0.173662 -0.208189
2004-07-13 07:14:32 51°23.223 2°56.16 20.585385 0.031262 0.173648 -0.241899
2004-07-13 07:14:37 51°23.239 2°56.172 20.581211 0.031262 0.173656 -0.208189
2004-07-13 07:14:40 51°23.249 2°56.18 20.583178 0.031262 0.173659 -0.208189
2004-07-13 07:14:45 51°23.265 2°56.192 20.584984 0.031262 0.173662 -0.208189
2004-07-13 07:14:52 51°23.288 2°56.21 20.589799 0.031262 0.173668 -0.275608
2004-07-13 07:14:57 51°23.305 2°56.223 20.589799 0.031262 0.173668 -0.275608
2004-07-13 07:15:02 51°23.321 2°56.236 20.582656 0.031262 0.17367 -0.208189
2004-07-13 07:15:06 51°23.334 2°56.246 20.584542 0.031262 0.173673 -0.241899
2004-07-13 07:15:12 51°23.353 2°56.261 20.589719 0.031262 0.17367 -0.241899
2004-07-13 07:15:17 51°23.369 2°56.273 20.589599 0.031262 0.173673 -0.241899
2004-07-13 07:15:22 51°23.385 2°56.285 20.591685 0.031262 0.173673 -0.275608
2004-07-13 07:15:24 51°23.392 2°56.29 20.591685 0.031262 0.173673 -0.275608
2004-07-13 07:15:32 51°23.418 2°56.308 20.587913 0.031262 0.173679 -0.208189
2004-07-13 07:15:37 51°23.435 2°56.32 20.591725 0.031262 0.173679 -0.241899
2004-07-13 07:15:42 51°23.451 2°56.331 20.592688 0.031262 0.17367 -0.241899
2004-07-13 07:15:46 51°23.465 2°56.34 20.594615 0.031262 0.173676 -0.275608
2004-07-13 07:15:52 51°23.485 2°56.354 20.594775 0.031262 0.173679 -0.241899
2004-07-13 07:15:55 51°23.495 2°56.361 20.594775 0.031262 0.173679 -0.241899
2004-07-13 07:16:02 51°23.518 2°56.377 20.599991 0.031262 0.173682 -0.208189
2004-07-13 07:16:06 51°23.531 2°56.386 20.597303 0.031262 0.173676 -0.275608
2004-07-13 07:16:12 51°23.551 2°56.401 20.593932 0.031158 0.173096 -0.275608
2004-07-13 07:16:17 51°23.568 2°56.412 20.602438 0.031262 0.173679 -0.241899
2004-07-13 07:16:22 51°23.584 2°56.424 20.598186 0.031158 0.173101 -0.241899
2004-07-13 07:16:26 51°23.597 2°56.433 20.598186 0.031158 0.173101 -0.241899
2004-07-13 07:16:32 51°23.617 2°56.446 20.600352 0.031262 0.173676 -0.208189
2004-07-13 07:16:36 51°23.63 2°56.456 20.602559 0.031262 0.173679 -0.241899
2004-07-13 07:16:42 51°23.65 2°56.469 20.600513 0.031262 0.173682 -0.208189
2004-07-13 07:16:46 51°23.663 2°56.478 20.605287 0.031262 0.173682 -0.275608
2004-07-13 07:16:52 51°23.683 2°56.492 20.606852 0.031158 0.173098 -0.241899
2004-07-13 07:16:56 51°23.696 2°56.501 20.606852 0.031158 0.173098 -0.241899
2004-07-13 07:17:02 51°23.717 2°56.514 20.601516 0.031262 0.173684 -0.309317
2004-07-13 07:17:06 51°23.73 2°56.524 20.60308 0.031262 0.173682 -0.241899
2004-07-13 07:17:12 51°23.75 2°56.538 20.611184 0.031158 0.173098 -0.275608
2004-07-13 07:17:16 51°23.763 2°56.547 20.606089 0.031262 0.173682 -0.275608
2004-07-13 07:17:21 51°23.78 2°56.559 20.613631 0.031158 0.173104 -0.241899
2004-07-13 07:17:25 51°23.793 2°56.568 20.613631 0.031158 0.173104 -0.241899
2004-07-13 07:17:31 51°23.813 2°56.583 20.606531 0.031262 0.173682 -0.275608
2004-07-13 07:17:36 51°23.829 2°56.594 20.610221 0.031158 0.173104 -0.275608
2004-07-13 07:17:40 51°23.842 2°56.603 20.609259 0.031262 0.173684 -0.241899
2004-07-13 07:17:45 51°23.859 2°56.614 20.612508 0.031158 0.173104 -0.208189
2004-07-13 07:17:52 51°23.881 2°56.631 20.619488 0.031262 0.173684 -0.241899
2004-07-13 07:17:57 51°23.897 2°56.642 20.619488 0.031262 0.173684 -0.241899
2004-07-13 07:18:02 51°23.913 2°56.654 20.61688 0.031158 0.173098 -0.275608
2004-07-13 07:18:05 51°23.923 2°56.66 20.61315 0.031262 0.173687 -0.241899
2004-07-13 07:18:12 51°23.946 2°56.676 20.62025 0.031262 0.173684 -0.275608
2004-07-13 07:18:17 51°23.962 2°56.688 20.613912 0.031262 0.173682 -0.275608
2004-07-13 07:18:21 51°23.975 2°56.697 20.620611 0.031158 0.173107 -0.241899
2004-07-13 07:18:26 51°23.991 2°56.708 20.620611 0.031158 0.173107 -0.241899
2004-07-13 07:18:32 51°24.011 2°56.721 20.617121 0.031158 0.173107 -0.208189
2004-07-13 07:18:36 51°24.024 2°56.731 20.6168 0.031262 0.173687 -0.241899
2004-07-13 07:18:42 51°24.043 2°56.745 20.620811 0.031158 0.17311 -0.241899
2004-07-13 07:18:46 51°24.056 2°56.754 20.621453 0.031158 0.173104 -0.241899
2004-07-13 07:18:52 51°24.075 2°56.767 20.621012 0.031158 0.173107 -0.241899
2004-07-13 07:18:56 51°24.088 2°56.777 20.621012 0.031158 0.173107 -0.241899
2004-07-13 07:18:59 51°24.098 2°56.783 20.628271 0.031158 0.17311 -0.275608
2004-07-13 07:19:06 51°24.121 2°56.799 20.622135 0.031158 0.173104 -0.241899
2004-07-13 07:19:12 51°24.14 2°56.813 20.630999 0.031158 0.173107 -0.275608
2004-07-13 07:19:17 51°24.156 2°56.824 20.621253 0.031158 0.173101 -0.241899
2004-07-13 07:19:21 51°24.17 2°56.834 20.632282 0.031158 0.17311 -0.309317
2004-07-13 07:19:25 51°24.183 2°56.843 20.632282 0.031158 0.17311 -0.309317
2004-07-13 07:19:32 51°24.205 2°56.858 20.63152 0.031158 0.173115 -0.241899
2004-07-13 07:19:37 51°24.221 2°56.87 20.625945 0.031158 0.17311 -0.275608
2004-07-13 07:19:41 51°24.234 2°56.878 20.632883 0.031262 0.173693 -0.241899
2004-07-13 07:19:46 51°24.25 2°56.89 20.634728 0.031158 0.173112 -0.309317
2004-07-13 07:19:52 51°24.27 2°56.904 20.629314 0.031158 0.173112 -0.275608
2004-07-13 07:19:57 51°24.285 2°56.916 20.629314 0.031158 0.173112 -0.275608
2004-07-13 07:20:02 51°24.302 2°56.927 20.636573 0.031158 0.173118 -0.275608
2004-07-13 07:20:06 51°24.315 2°56.936 20.629956 0.031158 0.173112 -0.241899
2004-07-13 07:20:11 51°24.33 2°56.948 20.638257 0.031262 0.173693 -0.275608
2004-07-13 07:20:16 51°24.346 2°56.96 20.640062 0.031158 0.173118 -0.275608
2004-07-13 07:20:22 51°24.365 2°56.973 20.635009 0.031158 0.173112 -0.275608
2004-07-13 07:20:26 51°24.378 2°56.982 20.635009 0.031158 0.173112 -0.275608
2004-07-13 07:20:32 51°24.397 2°56.996 20.636252 0.031158 0.17311 -0.275608
2004-07-13 07:20:36 51°24.41 2°57.006 20.643189 0.031158 0.17311 -0.309317
2004-07-13 07:20:41 51°24.426 2°57.016 20.641144 0.031158 0.173107 -0.309317
2004-07-13 07:20:45 51°24.439 2°57.026 20.645114 0.031158 0.173107 -0.275608
2004-07-13 07:20:52 51°24.462 2°57.042 20.641826 0.031158 0.173107 -0.241899
2004-07-13 07:20:57 51°24.478 2°57.054 20.641826 0.031158 0.173107 -0.241899
2004-07-13 07:21:02 51°24.494 2°57.066 20.637856 0.031158 0.173104 -0.208189
2004-07-13 07:21:05 51°24.503 2°57.072 20.650647 0.031158 0.17311 -0.275608
2004-07-13 07:21:16 51°24.538 2°57.097 20.648081 0.031158 0.17311 -0.275608
2004-07-13 07:21:21 51°24.554 2°57.108 20.648081 0.031158 0.17311 -0.275608
2004-07-13 07:21:25 51°24.567 2°57.117 20.648001 0.031158 0.173118 -0.275608
2004-07-13 07:21:30 51°24.583 2°57.129 20.643189 0.031158 0.173112 -0.309317
2004-07-13 07:21:36 51°24.602 2°57.143 20.650447 0.031158 0.173115 -0.241899
2004-07-13 07:21:40 51°24.615 2°57.153 20.652732 0.031158 0.173112 -0.275608
2004-07-13 07:21:45 51°24.631 2°57.163 20.653574 0.031158 0.173112 -0.275608
2004-07-13 07:21:50 51°24.647 2°57.176 20.653574 0.031158 0.173112 -0.275608
2004-07-13 07:21:55 51°24.663 2°57.186 20.65638 0.031158 0.17311 -0.241899
2004-07-13 07:22:01 51°24.682 2°57.2 20.652932 0.031158 0.173115 -0.275608
2004-07-13 07:22:05 51°24.695 2°57.209 20.651649 0.031158 0.173121 -0.241899
2004-07-13 07:22:10 51°24.711 2°57.22 20.658425 0.031158 0.173118 -0.241899
2004-07-13 07:22:15 51°24.728 2°57.231 20.65646 0.031158 0.173118 -0.241899
2004-07-13 07:22:20 51°24.744 2°57.243 20.65646 0.031158 0.173118 -0.241899
2004-07-13 07:22:24 51°24.757 2°57.252 20.654015 0.031158 0.173115 -0.309317
2004-07-13 07:22:30 51°24.776 2°57.265 20.664358 0.031158 0.173112 -0.309317
2004-07-13 07:22:36 51°24.795 2°57.278 20.659707 0.031158 0.173118 -0.309317
2004-07-13 07:22:41 51°24.812 2°57.29 20.658585 0.031158 0.173118 -0.275608
2004-07-13 07:22:45 51°24.825 2°57.298 20.661111 0.031158 0.173115 -0.275608
2004-07-13 07:22:49 51°24.838 2°57.307 20.661111 0.031158 0.173115 -0.275608
2004-07-13 07:22:56 51°24.861 2°57.322 20.668807 0.031158 0.173121 -0.309317
2004-07-13 07:23:01 51°24.878 2°57.334 20.660429 0.031158 0.173115 -0.309317
2004-07-13 07:23:05 51°24.89 2°57.343 20.67033 0.031158 0.173121 -0.275608
2004-07-13 07:23:10 51°24.907 2°57.354 20.66528 0.031158 0.173121 -0.309317
2004-07-13 07:23:16 51°24.927 2°57.367 20.666121 0.031158 0.173115 -0.309317
2004-07-13 07:23:20 51°24.94 2°57.376 20.666121 0.031158 0.173115 -0.309317
2004-07-13 07:23:25 51°24.957 2°57.387 20.672695 0.031158 0.173118 -0.309317
2004-07-13 07:23:30 51°24.973 2°57.399 20.668166 0.031158 0.173121 -0.241899
2004-07-13 07:23:36 51°24.993 2°57.412 20.673897 0.031158 0.173115 -0.309317
2004-07-13 07:23:40 51°25.007 2°57.421 20.6751 0.031158 0.173115 -0.241899
2004-07-13 07:23:45 51°25.023 2°57.432 20.674138 0.031158 0.173118 -0.309317
2004-07-13 07:23:50 51°25.04 2°57.444 20.674138 0.031158 0.173118 -0.309317
2004-07-13 07:23:56 51°25.06 2°57.458 20.669649 0.031158 0.173115 -0.241899
2004-07-13 07:23:59 51°25.069 2°57.464 20.678025 0.031158 0.173118 -0.275608
2004-07-13 07:24:06 51°25.092 2°57.481 20.680911 0.031158 0.173121 -0.275608
2004-07-13 07:24:09 51°25.102 2°57.488 20.675661 0.031158 0.173121 -0.309317
2004-07-13 07:24:16 51°25.125 2°57.504 20.681753 0.031158 0.173121 -0.241899
2004-07-13 07:24:21 51°25.142 2°57.515 20.681753 0.031158 0.173121 -0.241899
2004-07-13 07:24:25 51°25.155 2°57.524 20.680069 0.031158 0.173123 -0.275608
2004-07-13 07:24:30 51°25.171 2°57.535 20.67518 0.031158 0.173123 -0.241899
2004-07-13 07:24:36 51°25.19 2°57.549 20.684878 0.031158 0.173123 -0.309317
2004-07-13 07:24:41 51°25.206 2°57.561 20.686682 0.031158 0.173126 -0.275608
2004-07-13 07:24:45 51°25.219 2°57.569 20.681151 0.031158 0.173126 -0.309317
2004-07-13 07:24:50 51°25.235 2°57.581 20.681151 0.031158 0.173126 -0.309317
2004-07-13 07:24:56 51°25.254 2°57.594 20.689527 0.031158 0.173129 -0.208189
2004-07-13 07:25:00 51°25.268 2°57.603 20.683356 0.031158 0.173126 -0.309317
2004-07-13 07:25:05 51°25.284 2°57.614 20.686 0.031158 0.173123 -0.309317
2004-07-13 07:25:10 51°25.3 2°57.625 20.689807 0.031158 0.173121 -0.241899
2004-07-13 07:25:16 51°25.32 2°57.639 20.684958 0.031158 0.173121 -0.309317
2004-07-13 07:25:20 51°25.333 2°57.648 20.684958 0.031158 0.173121 -0.309317
2004-07-13 07:25:25 51°25.35 2°57.659 20.693013 0.031158 0.173123 -0.275608
2004-07-13 07:25:30 51°25.366 2°57.67 20.690168 0.031158 0.173121 -0.275608
2004-07-13 07:25:33 51°25.376 2°57.677 20.689887 0.031158 0.173123 -0.241899
2004-07-13 07:25:41 51°25.402 2°57.696 20.69141 0.031158 0.173123 -0.275608
2004-07-13 07:25:46 51°25.419 2°57.707 20.696699 0.031158 0.173121 -0.275608
2004-07-13 07:25:50 51°25.432 2°57.717 20.693934 0.031158 0.173121 -0.309317
2004-07-13 07:25:56 51°25.452 2°57.73 20.693934 0.031158 0.173121 -0.309317
2004-07-13 07:26:00 51°25.465 2°57.739 20.692492 0.031158 0.173121 -0.309317
2004-07-13 07:26:04 51°25.478 2°57.749 20.693854 0.031158 0.173118 -0.343027
2004-07-13 07:26:09 51°25.495 2°57.76 20.6975 0.031158 0.173121 -0.309317
2004-07-13 07:26:15 51°25.514 2°57.774 20.70323 0.031158 0.173121 -0.309317
2004-07-13 07:26:21 51°25.534 2°57.787 20.70323 0.031158 0.173121 -0.309317
2004-07-13 07:26:24 51°25.543 2°57.794 20.695978 0.031158 0.173123 -0.275608
2004-07-13 07:26:28 51°25.557 2°57.803 20.702388 0.031158 0.173123 -0.275608
2004-07-13 07:26:36 51°25.583 2°57.822 20.70327 0.031158 0.173129 -0.309317
2004-07-13 07:26:41 51°25.6 2°57.833 20.701387 0.031158 0.173123 -0.309317
2004-07-13 07:26:45 51°25.614 2°57.842 20.701988 0.031158 0.173123 -0.309317
2004-07-13 07:26:50 51°25.63 2°57.853 20.701988 0.031158 0.173123 -0.309317
2004-07-13 07:26:56 51°25.65 2°57.868 20.702829 0.031158 0.173118 -0.275608
2004-07-13 07:27:00 51°25.664 2°57.877 20.70984 0.031158 0.173123 -0.309317
2004-07-13 07:27:06 51°25.683 2°57.891 20.70327 0.031158 0.173121 -0.309317
2004-07-13 07:27:10 51°25.696 2°57.9 20.711442 0.031158 0.173118 -0.275608
2004-07-13 07:27:15 51°25.713 2°57.911 20.707036 0.031158 0.173121 -0.241899
2004-07-13 07:27:20 51°25.729 2°57.923 20.707036 0.031158 0.173121 -0.241899
2004-07-13 07:27:26 51°25.749 2°57.937 20.706034 0.031158 0.173123 -0.309317
2004-07-13 07:27:30 51°25.762 2°57.947 20.711362 0.031158 0.173121 -0.275608
2004-07-13 07:27:35 51°25.779 2°57.959 20.711843 0.031158 0.173123 -0.309317
2004-07-13 07:27:40 51°25.796 2°57.97 20.712203 0.031158 0.173126 -0.241899
2004-07-13 07:27:45 51°25.812 2°57.982 20.71717 0.031158 0.173126 -0.309317
2004-07-13 07:27:49 51°25.826 2°57.992 20.71717 0.031158 0.173126 -0.309317
2004-07-13 07:27:55 51°25.846 2°58.005 20.720495 0.031158 0.173123 -0.275608
2004-07-13 07:28:01 51°25.866 2°58.019 20.717411 0.031158 0.173126 -0.343027
2004-07-13 07:28:06 51°25.882 2°58.031 20.715248 0.031158 0.173123 -0.309317
2004-07-13 07:28:10 51°25.896 2°58.04 20.717251 0.031158 0.173123 -0.309317
2004-07-13 07:28:13 51°25.906 2°58.047 20.71701 0.031158 0.173126 -0.309317
2004-07-13 07:28:21 51°25.932 2°58.065 20.71701 0.031158 0.173126 -0.309317
2004-07-13 07:28:25 51°25.946 2°58.075 20.717851 0.031158 0.173126 -0.309317
2004-07-13 07:28:30 51°25.962 2°58.087 20.723539 0.031158 0.173126 -0.343027
2004-07-13 07:28:33 51°25.973 2°58.094 20.719053 0.031158 0.173129 -0.309317
2004-07-13 07:28:41 51°25.999 2°58.113 20.729066 0.031158 0.173129 -0.309317
2004-07-13 07:28:45 51°26.012 2°58.122 20.729186 0.031158 0.173129 -0.309317
2004-07-13 07:28:52 51°26.036 2°58.138 20.723339 0.031158 0.173126 -0.309317
2004-07-13 07:28:57 51°26.052 2°58.149 20.723339 0.031158 0.173126 -0.309317
2004-07-13 07:29:02 51°26.069 2°58.161 20.728425 0.031158 0.173129 -0.309317
2004-07-13 07:29:06 51°26.082 2°58.17 20.731869 0.031158 0.173132 -0.309317
2004-07-13 07:29:12 51°26.102 2°58.184 20.727344 0.031158 0.173126 -0.309317
2004-07-13 07:29:16 51°26.115 2°58.193 20.725862 0.031158 0.173129 -0.309317
2004-07-13 07:29:21 51°26.131 2°58.205 20.73259 0.031158 0.173134 -0.309317
2004-07-13 07:29:25 51°26.144 2°58.213 20.73259 0.031158 0.173134 -0.309317
2004-07-13 07:29:32 51°26.167 2°58.229 20.73267 0.031158 0.173132 -0.309317
2004-07-13 07:29:35 51°26.177 2°58.237 20.732911 0.031158 0.173137 -0.275608
2004-07-13 07:29:42 51°26.199 2°58.252 20.73219 0.031158 0.173134 -0.275608
2004-07-13 07:29:46 51°26.212 2°58.261 20.729547 0.031158 0.173134 -0.275608
2004-07-13 07:29:52 51°26.231 2°58.275 20.735313 0.031158 0.173132 -0.275608
2004-07-13 07:29:55 51°26.241 2°58.282 20.735313 0.031158 0.173132 -0.275608
2004-07-13 07:30:02 51°26.263 2°58.298 20.74188 0.031158 0.173143 -0.309317
2004-07-13 07:30:05 51°26.273 2°58.305 20.738437 0.031158 0.17314 -0.275608
2004-07-13 07:30:12 51°26.295 2°58.321 20.737276 0.031158 0.173146 -0.275608
2004-07-13 07:30:16 51°26.307 2°58.33 20.744763 0.031158 0.173134 -0.309317
2004-07-13 07:30:21 51°26.323 2°58.341 20.74104 0.031158 0.173134 -0.275608
2004-07-13 07:30:26 51°26.34 2°58.352 20.74104 0.031158 0.173134 -0.275608
2004-07-13 07:30:30 51°26.352 2°58.361 20.743562 0.031158 0.173134 -0.309317
2004-07-13 07:30:36 51°26.372 2°58.375 20.745404 0.031158 0.173143 -0.309317
2004-07-13 07:30:42 51°26.391 2°58.388 20.743722 0.031158 0.17314 -0.309317
2004-07-13 07:30:45 51°26.4 2°58.395 20.747126 0.031158 0.173146 -0.309317
2004-07-13 07:30:52 51°26.423 2°58.411 20.745284 0.031158 0.17314 -0.309317
2004-07-13 07:30:57 51°26.438 2°58.422 20.745284 0.031158 0.17314 -0.309317
2004-07-13 07:31:01 51°26.45 2°58.431 20.752651 0.031158 0.173143 -0.309317
2004-07-13 07:31:06 51°26.466 2°58.442 20.750329 0.031158 0.173148 -0.275608
2004-07-13 07:31:12 51°26.485 2°58.456 20.748367 0.031158 0.173143 -0.309317
2004-07-13 07:31:16 51°26.498 2°58.465 20.752691 0.031158 0.173146 -0.309317
2004-07-13 07:31:22 51°26.518 2°58.479 20.753772 0.031158 0.173143 -0.343027
2004-07-13 07:31:26 51°26.531 2°58.488 20.753772 0.031158 0.173143 -0.343027
2004-07-13 07:31:32 51°26.551 2°58.502 20.752651 0.031158 0.173137 -0.309317
2004-07-13 07:31:36 51°26.564 2°58.511 20.756534 0.031158 0.17314 -0.275608
2004-07-13 07:31:41 51°26.58 2°58.523 20.757735 0.031158 0.173143 -0.275608
2004-07-13 07:31:45 51°26.593 2°58.532 20.760097 0.031158 0.173137 -0.343027
2004-07-13 07:31:52 51°26.616 2°58.548 20.754452 0.031158 0.173137 -0.309317
2004-07-13 07:31:55 51°26.625 2°58.555 20.754452 0.031158 0.173137 -0.309317
2004-07-13 07:32:02 51°26.648 2°58.571 20.76446 0.031158 0.17314 -0.343027
2004-07-13 07:32:06 51°26.661 2°58.581 20.759657 0.031158 0.17314 -0.309317
2004-07-13 07:32:12 51°26.68 2°58.594 20.766582 0.031158 0.173148 -0.309317
2004-07-13 07:32:17 51°26.696 2°58.606 20.763099 0.031158 0.173146 -0.275608
2004-07-13 07:32:22 51°26.712 2°58.617 20.761858 0.031158 0.173146 -0.309317
2004-07-13 07:32:26 51°26.725 2°58.626 20.761858 0.031158 0.173146 -0.309317
2004-07-13 07:32:32 51°26.745 2°58.639 20.76386 0.031158 0.173148 -0.309317
2004-07-13 07:32:36 51°26.758 2°58.649 20.761458 0.031158 0.173146 -0.309317
2004-07-13 07:32:42 51°26.778 2°58.662 20.766822 0.031158 0.173134 -0.309317
2004-07-13 07:32:47 51°26.794 2°58.674 20.765741 0.031158 0.173132 -0.343027
2004-07-13 07:32:56 51°26.824 2°58.695 20.767062 0.031158 0.173143 -0.343027
2004-07-13 07:33:02 51°26.843 2°58.709 20.767062 0.031158 0.173143 -0.343027
2004-07-13 07:33:07 51°26.86 2°58.72 20.771305 0.031158 0.173146 -0.343027
2004-07-13 07:33:12 51°26.876 2°58.732 20.768943 0.031158 0.17314 -0.309317
2004-07-13 07:33:18 51°26.896 2°58.746 20.771705 0.031158 0.17314 -0.309317
2004-07-13 07:33:23 51°26.912 2°58.757 20.771105 0.031158 0.173129 -0.309317
2004-07-13 07:33:28 51°26.928 2°58.769 20.777028 0.031158 0.173134 -0.309317
2004-07-13 07:33:33 51°26.944 2°58.781 20.777028 0.031158 0.173134 -0.309317
2004-07-13 07:33:38 51°26.96 2°58.793 20.778269 0.031158 0.17314 -0.309317
2004-07-13 07:33:42 51°26.973 2°58.803 20.77955 0.031158 0.173143 -0.309317
2004-07-13 07:33:48 51°26.992 2°58.817 20.775347 0.031158 0.173143 -0.343027
2004-07-13 07:33:53 51°27.009 2°58.828 20.777108 0.031158 0.173146 -0.309317
2004-07-13 07:33:57 51°27.022 2°58.838 20.776068 0.031158 0.173143 -0.343027
2004-07-13 07:34:02 51°27.038 2°58.849 20.776068 0.031158 0.173143 -0.343027
2004-07-13 07:34:08 51°27.058 2°58.863 20.78087 0.031158 0.173146 -0.343027
2004-07-13 07:34:13 51°27.074 2°58.874 20.78139 0.031158 0.173146 -0.275608
2004-07-13 07:34:17 51°27.087 2°58.883 20.779189 0.031158 0.173143 -0.309317
2004-07-13 07:34:22 51°27.104 2°58.895 20.786033 0.031158 0.173148 -0.343027
2004-07-13 07:34:27 51°27.12 2°58.906 20.784512 0.031158 0.173148 -0.343027
2004-07-13 07:34:32 51°27.136 2°58.917 20.788874 0.031158 0.173148 -0.309317
2004-07-13 07:34:37 51°27.153 2°58.929 20.788874 0.031158 0.173148 -0.309317
2004-07-13 07:34:42 51°27.169 2°58.94 20.787313 0.031158 0.173151 -0.343027
2004-07-13 07:34:48 51°27.188 2°58.953 20.786793 0.031158 0.173151 -0.309317
2004-07-13 07:34:52 51°27.2 2°58.962 20.794556 0.031158 0.173148 -0.343027
2004-07-13 07:34:55 51°27.21 2°58.97 20.788954 0.031158 0.173154 -0.309317
2004-07-13 07:35:02 51°27.232 2°58.986 20.795556 0.031158 0.173143 -0.309317
2004-07-13 07:35:05 51°27.242 2°58.993 20.795556 0.031158 0.173143 -0.309317
2004-07-13 07:35:13 51°27.267 2°59.01 20.791835 0.031158 0.173148 -0.343027
2004-07-13 07:35:17 51°27.28 2°59.02 20.792435 0.031158 0.173143 -0.343027
2004-07-13 07:35:22 51°27.297 2°59.031 20.793195 0.031158 0.17314 -0.343027
2004-07-13 07:35:28 51°27.316 2°59.045 20.796876 0.031158 0.17314 -0.275608
2004-07-13 07:35:33 51°27.332 2°59.056 20.796876 0.031158 0.17314 -0.275608
2004-07-13 07:35:37 51°27.345 2°59.065 20.800677 0.031158 0.173148 -0.309317
2004-07-13 07:35:42 51°27.361 2°59.076 20.795876 0.031158 0.173151 -0.309317
2004-07-13 07:35:48 51°27.381 2°59.09 20.802477 0.031158 0.173157 -0.309317
2004-07-13 07:35:52 51°27.393 2°59.098 20.800197 0.031158 0.173157 -0.309317
2004-07-13 07:35:56 51°27.407 2°59.107 20.801797 0.031158 0.173151 -0.343027
2004-07-13 07:36:02 51°27.425 2°59.121 20.801797 0.031158 0.173151 -0.343027
2004-07-13 07:36:08 51°27.444 2°59.135 20.801677 0.031158 0.173159 -0.309317
2004-07-13 07:36:13 51°27.461 2°59.146 20.802797 0.031158 0.173137 -0.309317
2004-07-13 07:36:16 51°27.47 2°59.153 20.806238 0.031158 0.173151 -0.309317